Time,TemperatureF,DewpointF,PressureIn,WindDirection,WindDirectionDegrees,WindSpeedMPH,WindSpeedGustMPH,Humidity,HourlyPrecipIn,Conditions,Clouds,dailyrainin,SoftwareType,DateUTC
2013-02-06 00:00:00,24.3,17.5,29.53,South,180,2.9,4.7,75,0.00,,,0.00,WUHU216HW,2013-02-06 05:00:00,
2013-02-06 00:05:00,24.3,17.5,29.53,SSE,158,1.1,4.3,75,0.00,,,0.00,WUHU216HW,2013-02-06 05:05:00,
2013-02-06 00:10:00,24.1,17.3,29.53,South,180,3.4,4.7,75,0.00,,,0.00,WUHU216HW,2013-02-06 05:10:00,
2013-02-06 00:15:00,24.1,17.9,29.53,SSW,203,4.0,4.7,77,0.00,,,0.00,WUHU216HW,2013-02-06 05:15:00,
2013-02-06 00:16:00,24.1,17.7,29.53,SSW,203,2.7,4.7,76,0.00,,,0.00,WUHU216HW,2013-02-06 05:16:00,
2013-02-06 00:20:00,24.3,17.8,29.53,South,180,6.5,6.5,76,0.00,,,0.00,WUHU216HW,2013-02-06 05:20:00,
2013-02-06 00:21:00,24.3,17.8,29.53,SSW,203,4.3,6.5,76,0.00,,,0.00,WUHU216HW,2013-02-06 05:21:00,
2013-02-06 00:25:00,24.5,18.3,29.53,SW,225,1.8,6.5,77,0.00,,,0.00,WUHU216HW,2013-02-06 05:25:00,
2013-02-06 00:26:00,24.5,18.3,29.53,South,180,3.6,6.5,77,0.00,,,0.00,WUHU216HW,2013-02-06 05:26:00,
2013-02-06 00:30:00,24.5,18.3,29.53,SW,225,6.5,6.5,77,0.00,,,0.00,WUHU216HW,2013-02-06 05:30:00,
2013-02-06 00:31:00,24.5,18.3,29.53,SW,225,6.5,6.5,77,0.00,,,0.00,WUHU216HW,2013-02-06 05:31:00,
2013-02-06 00:35:00,24.5,18.3,29.53,SSW,203,6.9,6.9,77,0.00,,,0.00,WUHU216HW,2013-02-06 05:35:00,
2013-02-06 00:36:00,24.5,18.6,29.53,South,180,3.8,6.9,78,0.00,,,0.00,WUHU216HW,2013-02-06 05:36:00,
2013-02-06 00:41:00,24.3,18.1,29.53,SW,225,4.7,6.9,77,0.00,,,0.00,WUHU216HW,2013-02-06 05:41:00,
2013-02-06 00:46:00,24.3,18.5,29.53,SSW,203,3.8,6.3,78,0.00,,,0.00,WUHU216HW,2013-02-06 05:46:00,
2013-02-06 00:47:00,24.3,18.5,29.53,SSW,203,3.8,6.3,78,0.00,,,0.00,WUHU216HW,2013-02-06 05:47:00,
2013-02-06 00:51:00,24.5,18.3,29.53,SSW,203,4.9,6.0,77,0.00,,,0.00,WUHU216HW,2013-02-06 05:51:00,
2013-02-06 00:52:00,24.5,18.3,29.53,SSW,203,4.9,6.0,77,0.00,,,0.00,WUHU216HW,2013-02-06 05:52:00,
2013-02-06 00:56:00,24.5,18.6,29.52,SW,225,3.4,6.3,78,0.00,,,0.00,WUHU216HW,2013-02-06 05:56:00,
2013-02-06 00:57:00,24.5,18.6,29.52,SW,225,3.4,6.3,78,0.00,,,0.00,WUHU216HW,2013-02-06 05:57:00,
2013-02-06 01:01:00,24.5,18.6,29.52,South,180,5.1,7.6,78,0.00,,,0.00,WUHU216HW,2013-02-06 06:01:00,
2013-02-06 01:02:00,24.5,18.6,29.52,South,180,5.4,7.6,78,0.00,,,0.00,WUHU216HW,2013-02-06 06:02:00,
2013-02-06 01:06:00,24.3,18.5,29.52,SSW,203,5.6,7.6,78,0.00,,,0.00,WUHU216HW,2013-02-06 06:06:00,
2013-02-06 01:07:00,24.3,18.5,29.52,SSW,203,5.6,7.6,78,0.00,,,0.00,WUHU216HW,2013-02-06 06:07:00,
2013-02-06 01:11:00,24.1,18.5,29.52,SSW,203,5.4,5.6,79,0.00,,,0.00,WUHU216HW,2013-02-06 06:11:00,
2013-02-06 01:12:00,24.1,18.5,29.52,SSW,203,4.3,5.6,79,0.00,,,0.00,WUHU216HW,2013-02-06 06:12:00,
2013-02-06 01:16:00,24.1,18.5,29.52,South,180,2.9,5.8,79,0.00,,,0.00,WUHU216HW,2013-02-06 06:16:00,
2013-02-06 01:17:00,24.1,18.5,29.52,SSE,158,2.5,5.8,79,0.00,,,0.00,WUHU216HW,2013-02-06 06:17:00,
2013-02-06 01:22:00,24.1,18.5,29.52,South,180,6.9,6.9,79,0.00,,,0.00,WUHU216HW,2013-02-06 06:22:00,
2013-02-06 01:27:00,24.1,18.5,29.52,SSW,203,4.0,6.9,79,0.00,,,0.00,WUHU216HW,2013-02-06 06:27:00,
2013-02-06 01:28:00,24.1,18.5,29.52,SSW,203,4.0,6.9,79,0.00,,,0.00,WUHU216HW,2013-02-06 06:28:00,
2013-02-06 01:32:00,24.1,19.2,29.53,SSW,203,6.3,9.2,81,0.00,,,0.00,WUHU216HW,2013-02-06 06:32:00,
2013-02-06 01:33:00,24.1,19.2,29.53,South,180,6.9,9.2,81,0.00,,,0.00,WUHU216HW,2013-02-06 06:33:00,
2013-02-06 01:37:00,24.1,19.2,29.52,SW,225,4.5,9.2,81,0.00,,,0.00,WUHU216HW,2013-02-06 06:37:00,
2013-02-06 01:38:00,24.1,19.2,29.52,SW,225,4.5,9.2,81,0.00,,,0.00,WUHU216HW,2013-02-06 06:38:00,
2013-02-06 01:42:00,24.1,18.9,29.52,South,180,5.4,6.9,80,0.00,,,0.00,WUHU216HW,2013-02-06 06:42:00,
2013-02-06 01:43:00,24.1,18.9,29.53,SSW,203,6.0,6.5,80,0.00,,,0.00,WUHU216HW,2013-02-06 06:43:00,
2013-02-06 01:47:00,24.1,18.9,29.53,SSW,203,5.8,6.7,80,0.00,,,0.00,WUHU216HW,2013-02-06 06:47:00,
2013-02-06 01:48:00,24.1,18.9,29.53,SSW,203,4.7,6.7,80,0.00,,,0.00,WUHU216HW,2013-02-06 06:48:00,
2013-02-06 01:52:00,24.1,18.9,29.53,SSE,158,4.3,6.7,80,0.00,,,0.00,WUHU216HW,2013-02-06 06:52:00,
2013-02-06 01:53:00,23.9,18.7,29.53,SSW,203,4.0,6.7,80,0.00,,,0.00,WUHU216HW,2013-02-06 06:53:00,
2013-02-06 01:57:00,23.9,18.4,29.53,SSW,203,4.0,4.7,79,0.00,,,0.00,WUHU216HW,2013-02-06 06:57:00,
2013-02-06 01:58:00,23.9,18.4,29.53,SSW,203,4.0,4.7,79,0.00,,,0.00,WUHU216HW,2013-02-06 06:58:00,
2013-02-06 02:02:00,23.8,18.3,29.53,SSW,203,3.8,4.5,79,0.00,,,0.00,WUHU216HW,2013-02-06 07:02:00,
2013-02-06 02:03:00,23.8,18.3,29.52,SSW,203,5.8,5.8,79,0.00,,,0.00,WUHU216HW,2013-02-06 07:03:00,
2013-02-06 02:07:00,23.8,18.3,29.52,South,180,4.0,5.8,79,0.00,,,0.00,WUHU216HW,2013-02-06 07:07:00,
2013-02-06 02:08:00,23.8,18.3,29.53,SSW,203,3.8,5.8,79,0.00,,,0.00,WUHU216HW,2013-02-06 07:08:00,
2013-02-06 02:12:00,23.8,18.3,29.52,SSW,203,4.7,5.8,79,0.00,,,0.00,WUHU216HW,2013-02-06 07:12:00,
2013-02-06 02:13:00,23.8,18.3,29.53,SW,225,3.4,4.7,79,0.00,,,0.00,WUHU216HW,2013-02-06 07:13:00,
2013-02-06 02:18:00,23.8,18.5,29.53,SW,225,5.4,5.4,80,0.00,,,0.00,WUHU216HW,2013-02-06 07:18:00,
2013-02-06 02:19:00,23.8,18.5,29.53,SW,225,5.4,5.4,80,0.00,,,0.00,WUHU216HW,2013-02-06 07:19:00,
2013-02-06 02:23:00,23.8,18.5,29.53,SSW,203,3.1,5.4,80,0.00,,,0.00,WUHU216HW,2013-02-06 07:23:00,
2013-02-06 02:24:00,23.8,18.5,29.53,SSW,203,2.2,5.4,80,0.00,,,0.00,WUHU216HW,2013-02-06 07:24:00,
2013-02-06 02:28:00,23.9,18.7,29.53,South,180,2.5,3.4,80,0.00,,,0.00,WUHU216HW,2013-02-06 07:28:00,
2013-02-06 02:29:00,23.9,18.7,29.53,SSW,203,3.1,3.4,80,0.00,,,0.00,WUHU216HW,2013-02-06 07:29:00,
2013-02-06 02:33:00,23.9,18.7,29.53,SW,225,1.8,3.6,80,0.00,,,0.00,WUHU216HW,2013-02-06 07:33:00,
2013-02-06 02:34:00,23.9,18.7,29.53,SW,225,3.4,3.6,80,0.00,,,0.00,WUHU216HW,2013-02-06 07:34:00,
2013-02-06 02:38:00,23.9,18.7,29.53,SW,225,3.4,3.6,80,0.00,,,0.00,WUHU216HW,2013-02-06 07:38:00,
2013-02-06 02:39:00,23.9,18.7,29.53,SW,225,3.1,3.6,80,0.00,,,0.00,WUHU216HW,2013-02-06 07:39:00,
2013-02-06 02:43:00,23.9,18.7,29.53,SW,225,4.3,5.4,80,0.00,,,0.00,WUHU216HW,2013-02-06 07:43:00,
2013-02-06 02:44:00,23.9,18.7,29.53,SW,225,4.0,5.4,80,0.00,,,0.00,WUHU216HW,2013-02-06 07:44:00,
2013-02-06 02:48:00,23.9,19.0,29.53,SW,225,6.9,6.9,81,0.00,,,0.00,WUHU216HW,2013-02-06 07:48:00,
2013-02-06 02:49:00,23.9,19.0,29.53,SSW,203,3.8,6.9,81,0.00,,,0.00,WUHU216HW,2013-02-06 07:49:00,
2013-02-06 02:53:00,24.1,18.9,29.53,SW,225,4.0,6.9,80,0.00,,,0.00,WUHU216HW,2013-02-06 07:53:00,
2013-02-06 02:54:00,24.1,18.9,29.53,SW,225,4.0,6.9,80,0.00,,,0.00,WUHU216HW,2013-02-06 07:54:00,
2013-02-06 02:55:00,24.1,18.9,29.53,SSW,203,4.3,6.9,80,0.00,,,0.00,WUHU216HW,2013-02-06 07:55:00,
2013-02-06 02:58:00,24.1,18.9,29.53,SW,225,5.6,5.6,80,0.00,,,0.00,WUHU216HW,2013-02-06 07:58:00,
2013-02-06 02:59:00,24.1,18.9,29.53,SW,225,6.9,6.9,80,0.00,,,0.00,WUHU216HW,2013-02-06 07:59:00,
2013-02-06 03:00:00,24.1,18.9,29.53,SW,225,3.4,6.9,80,0.00,,,0.00,WUHU216HW,2013-02-06 08:00:00,
2013-02-06 03:04:00,24.3,19.1,29.53,SSW,203,4.7,6.9,80,0.00,,,0.00,WUHU216HW,2013-02-06 08:04:00,
2013-02-06 03:05:00,24.3,19.1,29.53,SSW,203,4.7,6.9,80,0.00,,,0.00,WUHU216HW,2013-02-06 08:05:00,
2013-02-06 03:09:00,24.3,19.1,29.53,SSW,203,4.7,6.9,80,0.00,,,0.00,WUHU216HW,2013-02-06 08:09:00,
2013-02-06 03:10:00,24.3,19.1,29.53,SSW,203,4.7,5.4,80,0.00,,,0.00,WUHU216HW,2013-02-06 08:10:00,
2013-02-06 03:14:00,24.5,19.3,29.53,WSW,248,4.9,5.4,80,0.00,,,0.00,WUHU216HW,2013-02-06 08:14:00,
2013-02-06 03:15:00,24.5,19.3,29.53,WSW,248,4.9,5.4,80,0.00,,,0.00,WUHU216HW,2013-02-06 08:15:00,
2013-02-06 03:19:00,24.5,19.5,29.53,SW,225,4.9,6.9,81,0.00,,,0.00,WUHU216HW,2013-02-06 08:19:00,
2013-02-06 03:20:00,24.5,19.5,29.53,SW,225,4.7,6.9,81,0.00,,,0.00,WUHU216HW,2013-02-06 08:20:00,
2013-02-06 03:24:00,24.5,19.5,29.53,South,180,4.7,6.9,81,0.00,,,0.00,WUHU216HW,2013-02-06 08:24:00,
2013-02-06 03:25:00,24.5,19.5,29.53,SW,225,6.5,6.9,81,0.00,,,0.00,WUHU216HW,2013-02-06 08:25:00,
2013-02-06 03:29:00,24.5,19.5,29.53,WSW,248,2.7,6.7,81,0.00,,,0.00,WUHU216HW,2013-02-06 08:29:00,
2013-02-06 03:30:00,24.5,19.3,29.53,WSW,248,3.6,6.7,80,0.00,,,0.00,WUHU216HW,2013-02-06 08:30:00,
2013-02-06 03:34:00,24.7,19.4,29.53,WSW,248,4.7,6.5,80,0.00,,,0.00,WUHU216HW,2013-02-06 08:34:00,
2013-02-06 03:35:00,24.7,19.4,29.53,WSW,248,4.7,6.5,80,0.00,,,0.00,WUHU216HW,2013-02-06 08:35:00,
2013-02-06 03:40:00,24.7,19.4,29.54,NNW,338,2.7,4.7,80,0.00,,,0.00,WUHU216HW,2013-02-06 08:40:00,
2013-02-06 03:41:00,24.7,19.1,29.53,WNW,293,4.0,4.7,79,0.00,,,0.00,WUHU216HW,2013-02-06 08:41:00,
2013-02-06 03:45:00,23.9,17.8,29.54,NW,315,3.8,4.5,77,0.00,,,0.00,WUHU216HW,2013-02-06 08:45:00,
2013-02-06 03:46:00,23.8,17.3,29.54,NW,315,2.5,4.5,76,0.00,,,0.00,WUHU216HW,2013-02-06 08:46:00,
2013-02-06 03:50:00,23.4,16.9,29.54,NNW,338,2.9,3.8,76,0.00,,,0.00,WUHU216HW,2013-02-06 08:50:00,
2013-02-06 03:51:00,23.2,16.7,29.54,NW,315,0.4,3.8,76,0.00,,,0.00,WUHU216HW,2013-02-06 08:51:00,
2013-02-06 03:55:00,23.0,16.6,29.54,NW,315,0.0,3.1,76,0.00,,,0.00,WUHU216HW,2013-02-06 08:55:00,
2013-02-06 03:56:00,23.0,16.6,29.54,WNW,293,1.1,3.1,76,0.00,,,0.00,WUHU216HW,2013-02-06 08:56:00,
2013-02-06 04:00:00,23.0,16.6,29.54,West,270,0.0,1.6,76,0.00,,,0.00,WUHU216HW,2013-02-06 09:00:00,
2013-02-06 04:01:00,23.0,16.6,29.54,West,270,0.0,1.6,76,0.00,,,0.00,WUHU216HW,2013-02-06 09:01:00,
2013-02-06 04:05:00,22.9,16.4,29.55,West,270,0.4,1.1,76,0.00,,,0.00,WUHU216HW,2013-02-06 09:05:00,
2013-02-06 04:06:00,22.9,16.4,29.55,West,270,0.4,1.1,76,0.00,,,0.00,WUHU216HW,2013-02-06 09:06:00,
2013-02-06 04:10:00,22.9,16.4,29.55,NW,315,0.2,0.9,76,0.00,,,0.00,WUHU216HW,2013-02-06 09:10:00,
2013-02-06 04:11:00,22.7,16.2,29.55,NW,315,0.2,0.9,76,0.00,,,0.00,WUHU216HW,2013-02-06 09:11:00,
2013-02-06 04:12:00,22.9,16.4,29.55,NW,315,0.4,0.9,76,0.00,,,0.00,WUHU216HW,2013-02-06 09:12:00,
2013-02-06 04:15:00,22.7,16.2,29.55,NW,315,0.4,0.9,76,0.00,,,0.00,WUHU216HW,2013-02-06 09:15:00,
2013-02-06 04:16:00,22.7,16.2,29.55,WNW,293,0.7,0.9,76,0.00,,,0.00,WUHU216HW,2013-02-06 09:16:00,
2013-02-06 04:17:00,22.7,16.2,29.55,WNW,293,0.4,0.9,76,0.00,,,0.00,WUHU216HW,2013-02-06 09:17:00,
2013-02-06 04:20:00,22.7,16.2,29.56,NW,315,0.4,0.9,76,0.00,,,0.00,WUHU216HW,2013-02-06 09:20:00,
2013-02-06 04:21:00,22.7,16.2,29.55,West,270,0.0,0.9,76,0.00,,,0.00,WUHU216HW,2013-02-06 09:21:00,
2013-02-06 04:22:00,22.7,16.2,29.55,West,270,0.0,0.9,76,0.00,,,0.00,WUHU216HW,2013-02-06 09:22:00,
2013-02-06 04:25:00,22.7,16.2,29.56,NNW,338,0.0,0.7,76,0.00,,,0.00,WUHU216HW,2013-02-06 09:25:00,
2013-02-06 04:26:00,22.7,16.2,29.56,NW,315,0.9,0.9,76,0.00,,,0.00,WUHU216HW,2013-02-06 09:26:00,
2013-02-06 04:27:00,22.7,16.2,29.56,NW,315,0.9,0.9,76,0.00,,,0.00,WUHU216HW,2013-02-06 09:27:00,
2013-02-06 04:30:00,22.7,16.2,29.56,NW,315,1.1,1.1,76,0.00,,,0.00,WUHU216HW,2013-02-06 09:30:00,
2013-02-06 04:31:00,22.7,16.2,29.56,NW,315,0.4,1.1,76,0.00,,,0.00,WUHU216HW,2013-02-06 09:31:00,
2013-02-06 04:32:00,22.7,16.2,29.56,NNW,338,0.0,1.1,76,0.00,,,0.00,WUHU216HW,2013-02-06 09:32:00,
2013-02-06 04:35:00,22.7,16.6,29.56,NNW,338,0.0,1.1,77,0.00,,,0.00,WUHU216HW,2013-02-06 09:35:00,
2013-02-06 04:36:00,22.7,16.2,29.56,NW,315,0.4,1.1,76,0.00,,,0.00,WUHU216HW,2013-02-06 09:36:00,
2013-02-06 04:37:00,22.7,16.2,29.56,West,270,1.8,1.8,76,0.00,,,0.00,WUHU216HW,2013-02-06 09:37:00,
2013-02-06 04:41:00,22.7,16.6,29.56,East,90,0.2,1.8,77,0.00,,,0.00,WUHU216HW,2013-02-06 09:41:00,
2013-02-06 04:42:00,22.5,16.4,29.56,East,90,0.0,1.8,77,0.00,,,0.00,WUHU216HW,2013-02-06 09:42:00,
2013-02-06 04:46:00,22.5,16.4,29.56,WSW,248,1.6,1.8,77,0.00,,,0.00,WUHU216HW,2013-02-06 09:46:00,
2013-02-06 04:47:00,22.5,16.4,29.56,WSW,248,0.2,1.8,77,0.00,,,0.00,WUHU216HW,2013-02-06 09:47:00,
2013-02-06 04:51:00,22.5,16.4,29.57,South,180,0.0,1.8,77,0.00,,,0.00,WUHU216HW,2013-02-06 09:51:00,
2013-02-06 04:52:00,22.5,16.4,29.57,WNW,293,0.0,1.8,77,0.00,,,0.00,WUHU216HW,2013-02-06 09:52:00,
2013-02-06 04:53:00,22.5,16.4,29.57,NNW,338,0.0,1.8,77,0.00,,,0.00,WUHU216HW,2013-02-06 09:53:00,
2013-02-06 04:56:00,22.5,16.4,29.57,NW,315,0.0,1.1,77,0.00,,,0.00,WUHU216HW,2013-02-06 09:56:00,
2013-02-06 04:57:00,22.5,16.4,29.57,SW,225,0.7,1.1,77,0.00,,,0.00,WUHU216HW,2013-02-06 09:57:00,
2013-02-06 04:58:00,22.5,16.4,29.57,SW,225,0.0,1.1,77,0.00,,,0.00,WUHU216HW,2013-02-06 09:58:00,
2013-02-06 05:01:00,22.5,16.4,29.58,WSW,248,1.1,1.1,77,0.00,,,0.00,WUHU216HW,2013-02-06 10:01:00,
2013-02-06 05:02:00,22.5,16.4,29.58,WSW,248,0.4,1.1,77,0.00,,,0.00,WUHU216HW,2013-02-06 10:02:00,
2013-02-06 05:03:00,22.5,16.4,29.58,WSW,248,0.4,1.1,77,0.00,,,0.00,WUHU216HW,2013-02-06 10:03:00,
2013-02-06 05:06:00,22.5,16.4,29.58,South,180,0.0,1.1,77,0.00,,,0.00,WUHU216HW,2013-02-06 10:06:00,
2013-02-06 05:07:00,22.5,16.4,29.58,South,180,0.0,1.1,77,0.00,,,0.00,WUHU216HW,2013-02-06 10:07:00,
2013-02-06 05:08:00,22.5,16.4,29.58,South,180,0.0,1.1,77,0.00,,,0.00,WUHU216HW,2013-02-06 10:08:00,
2013-02-06 05:11:00,22.5,16.4,29.58,NNE,23,0.4,0.9,77,0.00,,,0.00,WUHU216HW,2013-02-06 10:11:00,
2013-02-06 05:12:00,22.7,16.6,29.58,NNE,23,0.7,0.9,77,0.00,,,0.00,WUHU216HW,2013-02-06 10:12:00,
2013-02-06 05:13:00,22.7,16.6,29.58,NNE,23,0.7,0.9,77,0.00,,,0.00,WUHU216HW,2013-02-06 10:13:00,
2013-02-06 05:14:00,22.7,16.6,29.58,NNE,23,0.4,0.7,77,0.00,,,0.00,WUHU216HW,2013-02-06 10:14:00,
2013-02-06 05:16:00,22.7,16.6,29.58,NE,45,0.2,0.7,77,0.00,,,0.00,WUHU216HW,2013-02-06 10:16:00,
2013-02-06 05:17:00,22.7,16.6,29.58,NE,45,0.0,0.7,77,0.00,,,0.00,WUHU216HW,2013-02-06 10:17:00,
2013-02-06 05:18:00,22.7,16.6,29.58,North,0,0.0,0.7,77,0.00,,,0.00,WUHU216HW,2013-02-06 10:18:00,
2013-02-06 05:19:00,22.7,16.6,29.58,North,0,0.2,0.7,77,0.00,,,0.00,WUHU216HW,2013-02-06 10:19:00,
2013-02-06 05:21:00,22.7,16.6,29.58,SE,135,0.0,0.7,77,0.00,,,0.00,WUHU216HW,2013-02-06 10:21:00,
2013-02-06 05:22:00,22.9,16.8,29.58,SE,135,0.4,0.7,77,0.00,,,0.00,WUHU216HW,2013-02-06 10:22:00,
2013-02-06 05:23:00,22.9,16.8,29.58,SSE,158,1.1,1.1,77,0.00,,,0.00,WUHU216HW,2013-02-06 10:23:00,
2013-02-06 05:24:00,22.9,16.8,29.58,SSE,158,1.1,1.1,77,0.00,,,0.00,WUHU216HW,2013-02-06 10:24:00,
2013-02-06 05:26:00,22.9,16.8,29.58,SE,135,0.4,1.1,77,0.00,,,0.00,WUHU216HW,2013-02-06 10:26:00,
2013-02-06 05:28:00,22.9,16.8,29.58,SE,135,0.0,1.1,77,0.00,,,0.00,WUHU216HW,2013-02-06 10:28:00,
2013-02-06 05:29:00,22.9,16.8,29.58,NNW,338,0.0,1.1,77,0.00,,,0.00,WUHU216HW,2013-02-06 10:29:00,
2013-02-06 05:31:00,22.9,16.8,29.58,ENE,68,0.0,1.1,77,0.00,,,0.00,WUHU216HW,2013-02-06 10:31:00,
2013-02-06 05:33:00,22.9,16.8,29.58,SE,135,0.7,1.1,77,0.00,,,0.00,WUHU216HW,2013-02-06 10:33:00,
2013-02-06 05:35:00,22.9,16.8,29.58,SE,135,1.3,1.3,77,0.00,,,0.00,WUHU216HW,2013-02-06 10:35:00,
2013-02-06 05:36:00,22.9,16.8,29.58,SSE,158,1.6,1.6,77,0.00,,,0.00,WUHU216HW,2013-02-06 10:36:00,
2013-02-06 05:38:00,22.9,16.8,29.58,SE,135,0.9,1.6,77,0.00,,,0.00,WUHU216HW,2013-02-06 10:38:00,
2013-02-06 05:40:00,22.9,16.8,29.58,East,90,0.9,1.6,77,0.00,,,0.00,WUHU216HW,2013-02-06 10:40:00,
2013-02-06 05:41:00,22.9,16.8,29.58,East,90,1.1,1.6,77,0.00,,,0.00,WUHU216HW,2013-02-06 10:41:00,
2013-02-06 05:44:00,22.9,16.8,29.58,SE,135,0.4,1.6,77,0.00,,,0.00,WUHU216HW,2013-02-06 10:44:00,
2013-02-06 05:45:00,22.9,16.8,29.58,ESE,113,0.7,1.6,77,0.00,,,0.00,WUHU216HW,2013-02-06 10:45:00,
2013-02-06 05:46:00,22.9,16.8,29.58,SE,135,1.3,1.3,77,0.00,,,0.00,WUHU216HW,2013-02-06 10:46:00,
2013-02-06 05:49:00,22.9,16.8,29.58,SE,135,1.1,1.3,77,0.00,,,0.00,WUHU216HW,2013-02-06 10:49:00,
2013-02-06 05:50:00,22.9,16.8,29.58,SE,135,1.1,1.3,77,0.00,,,0.00,WUHU216HW,2013-02-06 10:50:00,
2013-02-06 05:51:00,22.9,16.8,29.58,SE,135,0.7,1.3,77,0.00,,,0.00,WUHU216HW,2013-02-06 10:51:00,
2013-02-06 05:55:00,22.9,16.8,29.58,SE,135,0.9,1.3,77,0.00,,,0.00,WUHU216HW,2013-02-06 10:55:00,
2013-02-06 05:56:00,22.9,16.8,29.58,SE,135,0.9,1.1,77,0.00,,,0.00,WUHU216HW,2013-02-06 10:56:00,
2013-02-06 06:00:00,22.9,16.8,29.58,SE,135,1.1,1.8,77,0.00,,,0.00,WUHU216HW,2013-02-06 11:00:00,
2013-02-06 06:01:00,22.9,16.8,29.59,SE,135,1.1,1.8,77,0.00,,,0.00,WUHU216HW,2013-02-06 11:01:00,
2013-02-06 06:02:00,23.0,16.9,29.59,SE,135,1.3,1.8,77,0.00,,,0.00,WUHU216HW,2013-02-06 11:02:00,
2013-02-06 06:05:00,23.0,16.9,29.59,SE,135,1.3,1.8,77,0.00,,,0.00,WUHU216HW,2013-02-06 11:05:00,
2013-02-06 06:06:00,23.0,16.9,29.59,SE,135,2.0,2.0,77,0.00,,,0.00,WUHU216HW,2013-02-06 11:06:00,
2013-02-06 06:07:00,23.0,16.9,29.59,SE,135,1.3,2.0,77,0.00,,,0.00,WUHU216HW,2013-02-06 11:07:00,
2013-02-06 06:10:00,23.0,16.9,29.59,SE,135,1.8,2.0,77,0.00,,,0.00,WUHU216HW,2013-02-06 11:10:00,
2013-02-06 06:11:00,23.0,16.9,29.59,SE,135,1.1,2.0,77,0.00,,,0.00,WUHU216HW,2013-02-06 11:11:00,
2013-02-06 06:12:00,23.0,16.9,29.59,SSE,158,1.8,2.0,77,0.00,,,0.00,WUHU216HW,2013-02-06 11:12:00,
2013-02-06 06:15:00,23.2,17.1,29.59,SSE,158,2.2,2.2,77,0.00,,,0.00,WUHU216HW,2013-02-06 11:15:00,
2013-02-06 06:16:00,23.2,17.1,29.59,SSE,158,1.6,2.2,77,0.00,,,0.00,WUHU216HW,2013-02-06 11:16:00,
2013-02-06 06:17:00,23.2,17.1,29.59,SSE,158,2.2,2.2,77,0.00,,,0.00,WUHU216HW,2013-02-06 11:17:00,
2013-02-06 06:21:00,23.2,17.4,29.59,SSE,158,2.5,2.5,78,0.00,,,0.00,WUHU216HW,2013-02-06 11:21:00,
2013-02-06 06:23:00,23.4,17.6,29.60,South,180,3.6,3.6,78,0.00,,,0.00,WUHU216HW,2013-02-06 11:23:00,
2013-02-06 06:26:00,23.4,17.6,29.59,South,180,2.2,3.6,78,0.00,,,0.00,WUHU216HW,2013-02-06 11:26:00,
2013-02-06 06:28:00,23.4,17.6,29.60,SSE,158,2.9,3.6,78,0.00,,,0.00,WUHU216HW,2013-02-06 11:28:00,
2013-02-06 06:31:00,23.4,17.6,29.60,SSE,158,1.8,3.6,78,0.00,,,0.00,WUHU216HW,2013-02-06 11:31:00,
2013-02-06 06:33:00,23.4,17.6,29.60,SSE,158,1.8,2.9,78,0.00,,,0.00,WUHU216HW,2013-02-06 11:33:00,
2013-02-06 06:36:00,23.4,17.6,29.60,SE,135,1.8,2.9,78,0.00,,,0.00,WUHU216HW,2013-02-06 11:36:00,
2013-02-06 06:37:00,23.4,17.6,29.60,SSE,158,3.4,3.4,78,0.00,,,0.00,WUHU216HW,2013-02-06 11:37:00,
2013-02-06 06:38:00,23.4,17.6,29.60,SE,135,2.5,3.4,78,0.00,,,0.00,WUHU216HW,2013-02-06 11:38:00,
2013-02-06 06:41:00,23.4,17.6,29.60,SE,135,1.1,3.4,78,0.00,,,0.00,WUHU216HW,2013-02-06 11:41:00,
2013-02-06 06:42:00,23.4,17.6,29.60,SSE,158,0.4,3.4,78,0.00,,,0.00,WUHU216HW,2013-02-06 11:42:00,
2013-02-06 06:43:00,23.4,17.6,29.60,SE,135,1.6,3.4,78,0.00,,,0.00,WUHU216HW,2013-02-06 11:43:00,
2013-02-06 06:46:00,23.4,17.6,29.60,SSE,158,1.1,3.4,78,0.00,,,0.00,WUHU216HW,2013-02-06 11:46:00,
2013-02-06 06:47:00,23.4,17.6,29.60,SE,135,0.4,2.5,78,0.00,,,0.00,WUHU216HW,2013-02-06 11:47:00,
2013-02-06 06:48:00,23.4,17.6,29.61,SSE,158,1.3,1.8,78,0.00,,,0.00,WUHU216HW,2013-02-06 11:48:00,
2013-02-06 06:51:00,23.4,17.6,29.61,SE,135,2.5,2.5,78,0.00,,,0.00,WUHU216HW,2013-02-06 11:51:00,
2013-02-06 06:52:00,23.4,17.6,29.61,SE,135,1.8,2.5,78,0.00,,,0.00,WUHU216HW,2013-02-06 11:52:00,
2013-02-06 06:54:00,23.4,17.6,29.61,SE,135,1.6,2.5,78,0.00,,,0.00,WUHU216HW,2013-02-06 11:54:00,
2013-02-06 06:56:00,23.4,17.6,29.61,SSE,158,2.0,2.5,78,0.00,,,0.00,WUHU216HW,2013-02-06 11:56:00,
2013-02-06 06:57:00,23.4,17.6,29.61,SSE,158,2.7,2.7,78,0.00,,,0.00,WUHU216HW,2013-02-06 11:57:00,
2013-02-06 06:59:00,23.2,17.4,29.61,SE,135,2.7,2.7,78,0.00,,,0.00,WUHU216HW,2013-02-06 11:59:00,
2013-02-06 07:01:00,23.2,17.4,29.61,SE,135,2.7,2.7,78,0.00,,,0.00,WUHU216HW,2013-02-06 12:01:00,
2013-02-06 07:02:00,23.2,17.4,29.61,SE,135,2.7,2.7,78,0.00,,,0.00,WUHU216HW,2013-02-06 12:02:00,
2013-02-06 07:04:00,23.2,17.4,29.61,SSE,158,2.9,2.9,78,0.00,,,0.00,WUHU216HW,2013-02-06 12:04:00,
2013-02-06 07:06:00,23.2,17.4,29.61,SSE,158,2.9,3.1,78,0.00,,,0.00,WUHU216HW,2013-02-06 12:06:00,
2013-02-06 07:07:00,23.2,17.4,29.62,South,180,1.8,3.1,78,0.00,,,0.00,WUHU216HW,2013-02-06 12:07:00,
2013-02-06 07:09:00,23.2,17.4,29.61,SSE,158,3.1,3.1,78,0.00,,,0.00,WUHU216HW,2013-02-06 12:09:00,
2013-02-06 07:11:00,23.2,17.4,29.62,ESE,113,0.4,3.1,78,0.00,,,0.00,WUHU216HW,2013-02-06 12:11:00,
2013-02-06 07:12:00,23.2,17.4,29.62,South,180,0.0,3.1,78,0.00,,,0.00,WUHU216HW,2013-02-06 12:12:00,
2013-02-06 07:14:00,23.2,17.4,29.62,SSE,158,0.7,3.1,78,0.00,,,0.00,WUHU216HW,2013-02-06 12:14:00,
2013-02-06 07:16:00,23.4,17.6,29.62,South,180,2.5,3.1,78,0.00,,,0.00,WUHU216HW,2013-02-06 12:16:00,
2013-02-06 07:18:00,23.4,17.6,29.62,SSE,158,2.2,3.1,78,0.00,,,0.00,WUHU216HW,2013-02-06 12:18:00,
2013-02-06 07:19:00,23.4,17.6,29.62,SSE,158,2.5,3.4,78,0.00,,,0.00,WUHU216HW,2013-02-06 12:19:00,
2013-02-06 07:21:00,23.4,17.6,29.62,SSE,158,1.3,3.4,78,0.00,,,0.00,WUHU216HW,2013-02-06 12:21:00,
2013-02-06 07:23:00,23.4,17.6,29.62,SSE,158,1.3,3.4,78,0.00,,,0.00,WUHU216HW,2013-02-06 12:23:00,
2013-02-06 07:24:00,23.4,17.6,29.62,WNW,293,0.9,3.4,78,0.00,,,0.00,WUHU216HW,2013-02-06 12:24:00,
2013-02-06 07:26:00,23.4,17.6,29.63,NW,315,1.1,3.4,78,0.00,,,0.00,WUHU216HW,2013-02-06 12:26:00,
2013-02-06 07:28:00,23.4,17.6,29.63,NW,315,1.1,3.4,78,0.00,,,0.00,WUHU216HW,2013-02-06 12:28:00,
2013-02-06 07:29:00,23.4,17.9,29.63,WSW,248,0.4,1.3,79,0.00,,,0.00,WUHU216HW,2013-02-06 12:29:00,
2013-02-06 07:31:00,23.6,18.1,29.63,SSW,203,2.0,2.0,79,0.00,,,0.00,WUHU216HW,2013-02-06 12:31:00,
2013-02-06 07:33:00,23.6,18.1,29.63,South,180,3.1,3.1,79,0.00,,,0.00,WUHU216HW,2013-02-06 12:33:00,
2013-02-06 07:34:00,23.6,18.1,29.62,SSE,158,3.1,4.0,79,0.00,,,0.00,WUHU216HW,2013-02-06 12:34:00,
2013-02-06 07:36:00,23.8,18.3,29.63,SE,135,2.5,4.0,79,0.00,,,0.00,WUHU216HW,2013-02-06 12:36:00,
2013-02-06 07:38:00,23.8,18.3,29.62,SSE,158,2.2,4.0,79,0.00,,,0.00,WUHU216HW,2013-02-06 12:38:00,
2013-02-06 07:39:00,23.8,18.3,29.62,SE,135,1.8,4.0,79,0.00,,,0.00,WUHU216HW,2013-02-06 12:39:00,
2013-02-06 07:41:00,23.9,18.7,29.62,SE,135,2.7,4.0,80,0.00,,,0.00,WUHU216HW,2013-02-06 12:41:00,
2013-02-06 07:43:00,23.9,18.7,29.62,SE,135,2.0,3.1,80,0.00,,,0.00,WUHU216HW,2013-02-06 12:43:00,
2013-02-06 07:44:00,23.9,18.7,29.63,SSW,203,3.1,3.1,80,0.00,,,0.00,WUHU216HW,2013-02-06 12:44:00,
2013-02-06 07:46:00,24.1,18.9,29.62,SSE,158,2.2,3.1,80,0.00,,,0.00,WUHU216HW,2013-02-06 12:46:00,
2013-02-06 07:48:00,24.1,18.9,29.62,SSE,158,2.0,3.1,80,0.00,,,0.00,WUHU216HW,2013-02-06 12:48:00,
2013-02-06 07:49:00,24.3,19.1,29.63,SSE,158,2.5,3.1,80,0.00,,,0.00,WUHU216HW,2013-02-06 12:49:00,
2013-02-06 07:52:00,24.3,19.1,29.63,SSE,158,2.2,3.1,80,0.00,,,0.00,WUHU216HW,2013-02-06 12:52:00,
2013-02-06 07:53:00,24.3,19.1,29.63,SSE,158,1.6,3.1,80,0.00,,,0.00,WUHU216HW,2013-02-06 12:53:00,
2013-02-06 07:54:00,24.3,19.1,29.63,SSE,158,2.2,2.5,80,0.00,,,0.00,WUHU216HW,2013-02-06 12:54:00,
2013-02-06 07:57:00,24.5,19.3,29.63,SSE,158,2.5,3.6,80,0.00,,,0.00,WUHU216HW,2013-02-06 12:57:00,
2013-02-06 07:58:00,24.5,19.3,29.63,SSE,158,2.0,3.6,80,0.00,,,0.00,WUHU216HW,2013-02-06 12:58:00,
2013-02-06 07:59:00,24.7,19.4,29.63,SE,135,2.2,3.6,80,0.00,,,0.00,WUHU216HW,2013-02-06 12:59:00,
2013-02-06 08:02:00,24.7,19.7,29.63,SE,135,2.5,3.6,81,0.00,,,0.00,WUHU216HW,2013-02-06 13:02:00,
2013-02-06 08:03:00,24.7,19.4,29.63,SE,135,2.5,3.6,80,0.00,,,0.00,WUHU216HW,2013-02-06 13:03:00,
2013-02-06 08:04:00,24.7,19.4,29.63,SSE,158,2.5,3.6,80,0.00,,,0.00,WUHU216HW,2013-02-06 13:04:00,
2013-02-06 08:07:00,24.8,19.6,29.63,SSE,158,2.5,2.7,80,0.00,,,0.00,WUHU216HW,2013-02-06 13:07:00,
2013-02-06 08:08:00,24.8,19.6,29.63,SE,135,2.7,2.7,80,0.00,,,0.00,WUHU216HW,2013-02-06 13:08:00,
2013-02-06 08:09:00,24.8,19.6,29.63,SSE,158,2.9,2.9,80,0.00,,,0.00,WUHU216HW,2013-02-06 13:09:00,
2013-02-06 08:10:00,24.8,19.6,29.63,SSE,158,2.9,2.9,80,0.00,,,0.00,WUHU216HW,2013-02-06 13:10:00,
2013-02-06 08:12:00,24.8,19.6,29.63,SSE,158,2.0,2.9,80,0.00,,,0.00,WUHU216HW,2013-02-06 13:12:00,
2013-02-06 08:13:00,25.0,19.8,29.63,SE,135,1.8,2.9,80,0.00,,,0.00,WUHU216HW,2013-02-06 13:13:00,
2013-02-06 08:14:00,25.0,19.8,29.63,SE,135,2.5,2.9,80,0.00,,,0.00,WUHU216HW,2013-02-06 13:14:00,
2013-02-06 08:15:00,25.0,19.8,29.63,SSE,158,2.2,2.9,80,0.00,,,0.00,WUHU216HW,2013-02-06 13:15:00,
2013-02-06 08:17:00,25.2,20.0,29.63,SSE,158,2.7,2.9,80,0.00,,,0.00,WUHU216HW,2013-02-06 13:17:00,
2013-02-06 08:18:00,25.2,20.0,29.63,SE,135,2.5,2.9,80,0.00,,,0.00,WUHU216HW,2013-02-06 13:18:00,
2013-02-06 08:19:00,25.2,20.0,29.63,SSE,158,1.6,2.9,80,0.00,,,0.00,WUHU216HW,2013-02-06 13:19:00,
2013-02-06 08:20:00,25.4,20.1,29.63,SSE,158,2.9,2.9,80,0.00,,,0.00,WUHU216HW,2013-02-06 13:20:00,
2013-02-06 08:22:00,25.6,20.3,29.64,SSE,158,2.0,2.9,80,0.00,,,0.00,WUHU216HW,2013-02-06 13:22:00,
2013-02-06 08:24:00,25.6,20.3,29.64,SE,135,2.7,2.9,80,0.00,,,0.00,WUHU216HW,2013-02-06 13:24:00,
2013-02-06 08:25:00,25.6,20.3,29.63,SSE,158,1.8,2.9,80,0.00,,,0.00,WUHU216HW,2013-02-06 13:25:00,
2013-02-06 08:27:00,25.6,20.3,29.63,SSE,158,1.8,2.9,80,0.00,,,0.00,WUHU216HW,2013-02-06 13:27:00,
2013-02-06 08:29:00,25.7,20.4,29.63,SSE,158,3.8,3.8,80,0.00,,,0.00,WUHU216HW,2013-02-06 13:29:00,
2013-02-06 08:30:00,25.7,20.4,29.64,SSE,158,4.3,4.3,80,0.00,,,0.00,WUHU216HW,2013-02-06 13:30:00,
2013-02-06 08:32:00,25.9,20.6,29.63,SE,135,2.2,4.3,80,0.00,,,0.00,WUHU216HW,2013-02-06 13:32:00,
2013-02-06 08:34:00,26.1,20.4,29.63,SSE,158,3.1,4.3,79,0.00,,,0.00,WUHU216HW,2013-02-06 13:34:00,
2013-02-06 08:35:00,26.1,20.8,29.63,SSE,158,2.0,4.3,80,0.00,,,0.00,WUHU216HW,2013-02-06 13:35:00,
2013-02-06 08:38:00,26.3,20.6,29.63,SSE,158,2.9,4.3,79,0.00,,,0.00,WUHU216HW,2013-02-06 13:38:00,
2013-02-06 08:39:00,26.3,20.6,29.63,SSE,158,2.9,4.3,79,0.00,,,0.00,WUHU216HW,2013-02-06 13:39:00,
2013-02-06 08:40:00,26.3,20.6,29.63,ESE,113,2.0,3.6,79,0.00,,,0.00,WUHU216HW,2013-02-06 13:40:00,
2013-02-06 08:43:00,26.5,20.8,29.63,SSE,158,2.7,3.6,79,0.00,,,0.00,WUHU216HW,2013-02-06 13:43:00,
2013-02-06 08:44:00,26.6,21.0,29.63,SE,135,1.1,3.6,79,0.00,,,0.00,WUHU216HW,2013-02-06 13:44:00,
2013-02-06 08:45:00,26.6,21.0,29.63,SE,135,2.0,3.6,79,0.00,,,0.00,WUHU216HW,2013-02-06 13:45:00,
2013-02-06 08:48:00,26.6,21.0,29.63,SSE,158,1.8,3.1,79,0.00,,,0.00,WUHU216HW,2013-02-06 13:48:00,
2013-02-06 08:49:00,26.6,21.0,29.63,SSE,158,1.1,2.7,79,0.00,,,0.00,WUHU216HW,2013-02-06 13:49:00,
2013-02-06 08:51:00,26.6,21.0,29.63,SE,135,0.4,2.7,79,0.00,,,0.00,WUHU216HW,2013-02-06 13:51:00,
2013-02-06 08:53:00,26.6,20.6,29.63,SE,135,2.0,2.0,78,0.00,,,0.00,WUHU216HW,2013-02-06 13:53:00,
2013-02-06 08:54:00,27.0,21.0,29.63,ESE,113,1.8,2.0,78,0.00,,,0.00,WUHU216HW,2013-02-06 13:54:00,
2013-02-06 08:55:00,27.0,21.0,29.63,ESE,113,1.8,2.0,78,0.00,,,0.00,WUHU216HW,2013-02-06 13:55:00,
2013-02-06 08:56:00,27.0,21.0,29.63,SE,135,2.0,2.0,78,0.00,,,0.00,WUHU216HW,2013-02-06 13:56:00,
2013-02-06 08:58:00,27.2,21.5,29.63,South,180,1.8,2.0,79,0.00,,,0.00,WUHU216HW,2013-02-06 13:58:00,
2013-02-06 08:59:00,27.5,21.9,29.63,SE,135,2.0,2.0,79,0.00,,,0.00,WUHU216HW,2013-02-06 13:59:00,
2013-02-06 09:00:00,27.5,21.9,29.63,SE,135,2.0,2.0,79,0.00,,,0.00,WUHU216HW,2013-02-06 14:00:00,
2013-02-06 09:01:00,27.9,21.9,29.63,SSE,158,2.9,2.9,78,0.00,,,0.00,WUHU216HW,2013-02-06 14:01:00,
2013-02-06 09:03:00,28.3,22.0,29.63,SSW,203,2.2,2.9,77,0.00,,,0.00,WUHU216HW,2013-02-06 14:03:00,
2013-02-06 09:05:00,28.4,22.2,29.63,SSW,203,3.8,3.8,77,0.00,,,0.00,WUHU216HW,2013-02-06 14:05:00,
2013-02-06 09:06:00,28.8,22.5,29.63,South,180,2.9,3.8,77,0.00,,,0.00,WUHU216HW,2013-02-06 14:06:00,
2013-02-06 09:08:00,29.2,22.5,29.63,South,180,2.9,3.8,76,0.00,,,0.00,WUHU216HW,2013-02-06 14:08:00,
2013-02-06 09:10:00,29.5,22.9,29.64,SSE,158,1.3,3.8,76,0.00,,,0.00,WUHU216HW,2013-02-06 14:10:00,
2013-02-06 09:11:00,29.7,23.1,29.64,SSE,158,3.4,3.8,76,0.00,,,0.00,WUHU216HW,2013-02-06 14:11:00,
2013-02-06 09:13:00,29.9,23.2,29.63,SSE,158,1.8,3.8,76,0.00,,,0.00,WUHU216HW,2013-02-06 14:13:00,
2013-02-06 09:15:00,30.2,23.6,29.64,SSE,158,2.5,3.4,76,0.00,,,0.00,WUHU216HW,2013-02-06 14:15:00,
2013-02-06 09:16:00,30.6,24.0,29.64,SSE,158,3.1,3.4,76,0.00,,,0.00,WUHU216HW,2013-02-06 14:16:00,
2013-02-06 09:18:00,30.6,23.6,29.64,SSW,203,3.8,3.8,75,0.00,,,0.00,WUHU216HW,2013-02-06 14:18:00,
2013-02-06 09:20:00,31.0,23.9,29.64,South,180,1.8,3.8,75,0.00,,,0.00,WUHU216HW,2013-02-06 14:20:00,
2013-02-06 09:21:00,31.3,23.9,29.64,South,180,4.0,4.0,74,0.00,,,0.00,WUHU216HW,2013-02-06 14:21:00,
2013-02-06 09:23:00,31.5,24.1,29.64,South,180,2.5,4.3,74,0.00,,,0.00,WUHU216HW,2013-02-06 14:23:00,
2013-02-06 09:25:00,31.7,24.3,29.64,SW,225,0.0,4.3,74,0.00,,,0.00,WUHU216HW,2013-02-06 14:25:00,
2013-02-06 09:26:00,31.9,24.2,29.64,SSW,203,2.5,4.3,73,0.00,,,0.00,WUHU216HW,2013-02-06 14:26:00,
2013-02-06 09:29:00,32.0,24.0,29.64,SSE,158,4.0,4.5,72,0.00,,,0.00,WUHU216HW,2013-02-06 14:29:00,
2013-02-06 09:30:00,32.0,24.0,29.64,SSE,158,4.0,4.5,72,0.00,,,0.00,WUHU216HW,2013-02-06 14:30:00,
2013-02-06 09:31:00,32.0,23.4,29.64,SE,135,2.9,4.5,70,0.00,,,0.00,WUHU216HW,2013-02-06 14:31:00,
2013-02-06 09:34:00,32.2,23.6,29.65,South,180,2.9,4.5,70,0.00,,,0.00,WUHU216HW,2013-02-06 14:34:00,
2013-02-06 09:35:00,32.4,24.0,29.65,SSW,203,4.7,4.7,71,0.00,,,0.00,WUHU216HW,2013-02-06 14:35:00,
2013-02-06 09:37:00,32.6,23.9,29.65,WSW,248,3.8,4.7,70,0.00,,,0.00,WUHU216HW,2013-02-06 14:37:00,
2013-02-06 09:39:00,32.8,24.0,29.65,NW,315,1.3,4.7,70,0.00,,,0.00,WUHU216HW,2013-02-06 14:39:00,
2013-02-06 09:40:00,32.8,24.0,29.65,NW,315,1.3,4.7,70,0.00,,,0.00,WUHU216HW,2013-02-06 14:40:00,
2013-02-06 09:42:00,32.6,23.1,29.65,ESE,113,5.4,5.4,68,0.00,,,0.00,WUHU216HW,2013-02-06 14:42:00,
2013-02-06 09:44:00,32.4,23.1,29.65,WSW,248,1.3,6.0,68,0.00,,,0.00,WUHU216HW,2013-02-06 14:44:00,
2013-02-06 09:45:00,32.4,23.1,29.65,WSW,248,1.3,6.0,68,0.00,,,0.00,WUHU216HW,2013-02-06 14:45:00,
2013-02-06 09:46:00,32.4,23.1,29.65,SSW,203,2.0,6.0,68,0.00,,,0.00,WUHU216HW,2013-02-06 14:46:00,
2013-02-06 09:47:00,32.2,22.9,29.66,WSW,248,5.8,6.0,68,0.00,,,0.00,WUHU216HW,2013-02-06 14:47:00,
2013-02-06 09:49:00,32.0,22.3,29.66,West,270,1.6,6.0,67,0.00,,,0.00,WUHU216HW,2013-02-06 14:49:00,
2013-02-06 09:50:00,32.0,22.3,29.66,West,270,1.6,6.0,67,0.00,,,0.00,WUHU216HW,2013-02-06 14:50:00,
2013-02-06 09:51:00,32.0,22.3,29.66,WSW,248,1.8,6.0,67,0.00,,,0.00,WUHU216HW,2013-02-06 14:51:00,
2013-02-06 09:52:00,32.0,22.0,29.66,NW,315,1.6,5.8,66,0.00,,,0.00,WUHU216HW,2013-02-06 14:52:00,
2013-02-06 09:54:00,32.0,22.3,29.66,SW,225,2.0,5.8,67,0.00,,,0.00,WUHU216HW,2013-02-06 14:54:00,
2013-02-06 09:55:00,32.0,22.3,29.66,SW,225,2.0,5.8,67,0.00,,,0.00,WUHU216HW,2013-02-06 14:55:00,
2013-02-06 09:56:00,32.0,22.0,29.66,WSW,248,2.2,5.8,66,0.00,,,0.00,WUHU216HW,2013-02-06 14:56:00,
2013-02-06 09:57:00,32.0,22.0,29.66,WSW,248,5.4,5.4,66,0.00,,,0.00,WUHU216HW,2013-02-06 14:57:00,
2013-02-06 09:59:00,32.0,21.6,29.66,NW,315,7.8,7.8,65,0.00,,,0.00,WUHU216HW,2013-02-06 14:59:00,
2013-02-06 10:00:00,32.0,21.6,29.66,West,270,7.2,7.8,65,0.00,,,0.00,WUHU216HW,2013-02-06 15:00:00,
2013-02-06 10:01:00,31.9,21.4,29.66,WNW,293,7.6,7.8,65,0.00,,,0.00,WUHU216HW,2013-02-06 15:01:00,
2013-02-06 10:02:00,31.9,20.3,29.66,NNW,338,9.6,9.6,62,0.00,,,0.00,WUHU216HW,2013-02-06 15:02:00,
2013-02-06 10:05:00,31.7,20.2,29.66,North,0,4.0,9.6,62,0.00,,,0.00,WUHU216HW,2013-02-06 15:05:00,
2013-02-06 10:06:00,31.7,20.2,29.66,WNW,293,5.1,9.6,62,0.00,,,0.00,WUHU216HW,2013-02-06 15:06:00,
2013-02-06 10:07:00,31.5,20.0,29.66,North,0,7.2,9.6,62,0.00,,,0.00,WUHU216HW,2013-02-06 15:07:00,
2013-02-06 10:10:00,31.5,20.0,29.66,West,270,7.6,10.5,62,0.00,,,0.00,WUHU216HW,2013-02-06 15:10:00,
2013-02-06 10:11:00,31.7,20.2,29.66,SW,225,7.2,10.5,62,0.00,,,0.00,WUHU216HW,2013-02-06 15:11:00,
2013-02-06 10:12:00,31.7,20.2,29.66,WNW,293,5.1,10.5,62,0.00,,,0.00,WUHU216HW,2013-02-06 15:12:00,
2013-02-06 10:15:00,31.9,20.3,29.66,WNW,293,4.5,10.5,62,0.00,,,0.00,WUHU216HW,2013-02-06 15:15:00,
2013-02-06 10:16:00,31.9,20.3,29.66,West,270,5.8,10.5,62,0.00,,,0.00,WUHU216HW,2013-02-06 15:16:00,
2013-02-06 10:18:00,31.9,20.3,29.66,WNW,293,5.1,10.5,62,0.00,,,0.00,WUHU216HW,2013-02-06 15:18:00,
2013-02-06 10:20:00,32.0,19.8,29.66,NW,315,7.2,13.4,60,0.00,,,0.00,WUHU216HW,2013-02-06 15:20:00,
2013-02-06 10:22:00,32.0,19.8,29.66,West,270,9.8,13.4,60,0.00,,,0.00,WUHU216HW,2013-02-06 15:22:00,
2013-02-06 10:23:00,32.0,20.2,29.66,WNW,293,8.1,13.4,61,0.00,,,0.00,WUHU216HW,2013-02-06 15:23:00,
2013-02-06 10:25:00,32.0,19.8,29.66,NW,315,8.5,13.4,60,0.00,,,0.00,WUHU216HW,2013-02-06 15:25:00,
2013-02-06 10:27:00,32.0,19.8,29.66,WNW,293,8.9,13.4,60,0.00,,,0.00,WUHU216HW,2013-02-06 15:27:00,
2013-02-06 10:28:00,32.0,19.8,29.66,NNW,338,4.7,12.8,60,0.00,,,0.00,WUHU216HW,2013-02-06 15:28:00,
2013-02-06 10:30:00,32.0,19.4,29.66,WNW,293,6.9,9.8,59,0.00,,,0.00,WUHU216HW,2013-02-06 15:30:00,
2013-02-06 10:32:00,32.0,19.4,29.66,West,270,4.7,8.9,59,0.00,,,0.00,WUHU216HW,2013-02-06 15:32:00,
2013-02-06 10:33:00,32.2,19.5,29.66,West,270,9.8,9.8,59,0.00,,,0.00,WUHU216HW,2013-02-06 15:33:00,
2013-02-06 10:35:00,32.2,19.5,29.66,NW,315,7.2,9.8,59,0.00,,,0.00,WUHU216HW,2013-02-06 15:35:00,
2013-02-06 10:36:00,32.2,19.5,29.66,NW,315,7.2,9.8,59,0.00,,,0.00,WUHU216HW,2013-02-06 15:36:00,
2013-02-06 10:37:00,32.0,19.4,29.67,NNW,338,3.6,9.8,59,0.00,,,0.00,WUHU216HW,2013-02-06 15:37:00,
2013-02-06 10:38:00,32.0,19.4,29.67,NNW,338,4.9,9.8,59,0.00,,,0.00,WUHU216HW,2013-02-06 15:38:00,
2013-02-06 10:40:00,32.0,19.8,29.67,West,270,9.4,9.8,60,0.00,,,0.00,WUHU216HW,2013-02-06 15:40:00,
2013-02-06 10:41:00,32.0,19.8,29.67,West,270,9.4,9.8,60,0.00,,,0.00,WUHU216HW,2013-02-06 15:41:00,
2013-02-06 10:42:00,32.0,19.4,29.67,NW,315,13.4,13.4,59,0.00,,,0.00,WUHU216HW,2013-02-06 15:42:00,
2013-02-06 10:43:00,31.9,19.2,29.67,West,270,11.2,13.4,59,0.00,,,0.00,WUHU216HW,2013-02-06 15:43:00,
2013-02-06 10:45:00,31.7,19.4,29.67,WNW,293,9.8,13.4,60,0.00,,,0.00,WUHU216HW,2013-02-06 15:45:00,
2013-02-06 10:46:00,31.7,19.4,29.67,WNW,293,9.8,13.4,60,0.00,,,0.00,WUHU216HW,2013-02-06 15:46:00,
2013-02-06 10:47:00,31.7,19.4,29.67,WNW,293,6.5,13.4,60,0.00,,,0.00,WUHU216HW,2013-02-06 15:47:00,
2013-02-06 10:48:00,31.7,19.4,29.67,NW,315,4.0,13.4,60,0.00,,,0.00,WUHU216HW,2013-02-06 15:48:00,
2013-02-06 10:50:00,31.7,19.4,29.67,West,270,9.8,13.4,60,0.00,,,0.00,WUHU216HW,2013-02-06 15:50:00,
2013-02-06 10:51:00,31.7,19.4,29.67,West,270,9.8,13.4,60,0.00,,,0.00,WUHU216HW,2013-02-06 15:51:00,
2013-02-06 10:52:00,31.5,19.6,29.67,West,270,13.2,13.2,61,0.00,,,0.00,WUHU216HW,2013-02-06 15:52:00,
2013-02-06 10:53:00,31.5,19.6,29.67,West,270,9.8,13.2,61,0.00,,,0.00,WUHU216HW,2013-02-06 15:53:00,
2013-02-06 10:55:00,31.5,19.6,29.67,WNW,293,14.3,14.3,61,0.00,,,0.00,WUHU216HW,2013-02-06 15:55:00,
2013-02-06 10:56:00,31.5,19.6,29.67,WNW,293,14.3,14.3,61,0.00,,,0.00,WUHU216HW,2013-02-06 15:56:00,
2013-02-06 10:58:00,31.5,19.6,29.67,NW,315,2.2,14.3,61,0.00,,,0.00,WUHU216HW,2013-02-06 15:58:00,
2013-02-06 10:59:00,31.5,20.0,29.67,West,270,4.7,14.3,62,0.00,,,0.00,WUHU216HW,2013-02-06 15:59:00,
2013-02-06 11:00:00,31.7,20.2,29.67,NW,315,5.1,14.3,62,0.00,,,0.00,WUHU216HW,2013-02-06 16:00:00,
2013-02-06 11:01:00,31.7,19.8,29.67,WNW,293,7.8,14.3,61,0.00,,,0.00,WUHU216HW,2013-02-06 16:01:00,
2013-02-06 11:03:00,31.9,20.3,29.67,WNW,293,8.5,14.3,62,0.00,,,0.00,WUHU216HW,2013-02-06 16:03:00,
2013-02-06 11:04:00,31.9,20.3,29.67,NNW,338,8.1,14.3,62,0.00,,,0.00,WUHU216HW,2013-02-06 16:04:00,
2013-02-06 11:05:00,31.7,20.2,29.67,WNW,293,6.0,8.5,62,0.00,,,0.00,WUHU216HW,2013-02-06 16:05:00,
2013-02-06 11:06:00,31.7,20.2,29.67,NNW,338,8.1,8.5,62,0.00,,,0.00,WUHU216HW,2013-02-06 16:06:00,
2013-02-06 11:08:00,31.7,20.2,29.68,WSW,248,10.7,10.7,62,0.00,,,0.00,WUHU216HW,2013-02-06 16:08:00,
2013-02-06 11:09:00,31.7,20.2,29.67,WNW,293,10.5,10.7,62,0.00,,,0.00,WUHU216HW,2013-02-06 16:09:00,
2013-02-06 11:10:00,31.7,20.2,29.68,North,0,6.9,10.7,62,0.00,,,0.00,WUHU216HW,2013-02-06 16:10:00,
2013-02-06 11:11:00,31.7,20.2,29.68,WSW,248,9.2,10.7,62,0.00,,,0.00,WUHU216HW,2013-02-06 16:11:00,
2013-02-06 11:13:00,31.5,20.0,29.68,WSW,248,12.5,12.5,62,0.00,,,0.00,WUHU216HW,2013-02-06 16:13:00,
2013-02-06 11:14:00,31.3,19.8,29.68,WNW,293,10.3,12.5,62,0.00,,,0.00,WUHU216HW,2013-02-06 16:14:00,
2013-02-06 11:16:00,31.3,19.8,29.68,West,270,8.5,12.5,62,0.00,,,0.00,WUHU216HW,2013-02-06 16:16:00,
2013-02-06 11:18:00,31.3,20.5,29.68,WSW,248,8.5,12.5,64,0.00,,,0.00,WUHU216HW,2013-02-06 16:18:00,
2013-02-06 11:19:00,31.3,20.5,29.68,NW,315,6.7,12.5,64,0.00,,,0.00,WUHU216HW,2013-02-06 16:19:00,
2013-02-06 11:21:00,31.3,20.5,29.68,NW,315,5.6,12.5,64,0.00,,,0.00,WUHU216HW,2013-02-06 16:21:00,
2013-02-06 11:23:00,31.3,20.5,29.68,West,270,8.1,10.3,64,0.00,,,0.00,WUHU216HW,2013-02-06 16:23:00,
2013-02-06 11:25:00,31.3,20.2,29.68,NW,315,6.7,9.2,63,0.00,,,0.00,WUHU216HW,2013-02-06 16:25:00,
2013-02-06 11:26:00,31.3,20.5,29.68,West,270,4.7,9.2,64,0.00,,,0.00,WUHU216HW,2013-02-06 16:26:00,
2013-02-06 11:29:00,31.5,20.7,29.68,NW,315,4.7,8.1,64,0.00,,,0.00,WUHU216HW,2013-02-06 16:29:00,
2013-02-06 11:30:00,31.5,20.7,29.68,WNW,293,6.0,8.1,64,0.00,,,0.00,WUHU216HW,2013-02-06 16:30:00,
2013-02-06 11:31:00,31.7,20.9,29.68,NW,315,4.9,8.1,64,0.00,,,0.00,WUHU216HW,2013-02-06 16:31:00,
2013-02-06 11:34:00,31.5,19.6,29.68,NW,315,8.5,9.2,61,0.00,,,0.00,WUHU216HW,2013-02-06 16:34:00,
2013-02-06 11:35:00,31.5,19.6,29.68,NW,315,8.5,9.2,61,0.00,,,0.00,WUHU216HW,2013-02-06 16:35:00,
2013-02-06 11:36:00,31.5,19.6,29.68,NNW,338,7.8,9.2,61,0.00,,,0.00,WUHU216HW,2013-02-06 16:36:00,
2013-02-06 11:39:00,31.7,19.8,29.68,WNW,293,6.3,12.5,61,0.00,,,0.00,WUHU216HW,2013-02-06 16:39:00,
2013-02-06 11:40:00,31.7,19.8,29.68,WNW,293,6.3,12.5,61,0.00,,,0.00,WUHU216HW,2013-02-06 16:40:00,
2013-02-06 11:41:00,31.9,20.0,29.68,SW,225,9.2,12.5,61,0.00,,,0.00,WUHU216HW,2013-02-06 16:41:00,
2013-02-06 11:44:00,32.0,18.9,29.68,WSW,248,9.2,16.8,58,0.00,,,0.00,WUHU216HW,2013-02-06 16:44:00,
2013-02-06 11:45:00,32.0,18.9,29.68,WSW,248,9.2,16.8,58,0.00,,,0.00,WUHU216HW,2013-02-06 16:45:00,
2013-02-06 11:46:00,32.0,18.9,29.68,WNW,293,9.6,16.8,58,0.00,,,0.00,WUHU216HW,2013-02-06 16:46:00,
2013-02-06 11:49:00,32.0,18.6,29.68,West,270,13.9,16.8,57,0.00,,,0.00,WUHU216HW,2013-02-06 16:49:00,
2013-02-06 11:50:00,32.0,18.6,29.68,West,270,13.9,16.8,57,0.00,,,0.00,WUHU216HW,2013-02-06 16:50:00,
2013-02-06 11:51:00,32.0,18.1,29.68,NNW,338,9.2,16.8,56,0.00,,,0.00,WUHU216HW,2013-02-06 16:51:00,
2013-02-06 11:54:00,32.2,18.3,29.68,WSW,248,6.9,14.5,56,0.00,,,0.00,WUHU216HW,2013-02-06 16:54:00,
2013-02-06 11:55:00,32.2,18.3,29.68,West,270,8.5,14.5,56,0.00,,,0.00,WUHU216HW,2013-02-06 16:55:00,
2013-02-06 11:56:00,32.4,18.4,29.68,West,270,8.1,13.9,56,0.00,,,0.00,WUHU216HW,2013-02-06 16:56:00,
2013-02-06 11:59:00,33.3,19.2,29.68,West,270,12.1,12.1,56,0.00,,,0.00,WUHU216HW,2013-02-06 16:59:00,
2013-02-06 12:00:00,33.5,18.9,29.68,WNW,293,12.3,12.3,55,0.00,,,0.00,WUHU216HW,2013-02-06 17:00:00,
2013-02-06 12:01:00,33.5,18.6,29.68,NNW,338,10.7,12.3,54,0.00,,,0.00,WUHU216HW,2013-02-06 17:01:00,
2013-02-06 12:02:00,33.5,18.1,29.68,West,270,16.8,16.8,53,0.00,,,0.00,WUHU216HW,2013-02-06 17:02:00,
2013-02-06 12:04:00,33.5,18.9,29.68,NNW,338,10.5,16.8,55,0.00,,,0.00,WUHU216HW,2013-02-06 17:04:00,
2013-02-06 12:05:00,33.3,19.6,29.68,NW,315,15.0,16.8,57,0.00,,,0.00,WUHU216HW,2013-02-06 17:05:00,
2013-02-06 12:06:00,33.1,20.3,29.68,NNW,338,10.5,16.8,59,0.00,,,0.00,WUHU216HW,2013-02-06 17:06:00,
2013-02-06 12:07:00,32.9,20.2,29.68,NNW,338,8.3,16.8,59,0.00,,,0.00,WUHU216HW,2013-02-06 17:07:00,
2013-02-06 12:10:00,32.4,21.3,29.68,NNW,338,9.6,16.8,63,0.00,,,0.00,WUHU216HW,2013-02-06 17:10:00,
2013-02-06 12:11:00,32.2,21.1,29.68,NNW,338,8.3,16.8,63,0.00,,,0.00,WUHU216HW,2013-02-06 17:11:00,
2013-02-06 12:12:00,32.2,20.7,29.68,NNW,338,3.6,15.0,62,0.00,,,0.00,WUHU216HW,2013-02-06 17:12:00,
2013-02-06 12:15:00,32.0,20.9,29.68,NNW,338,11.0,12.1,63,0.00,,,0.00,WUHU216HW,2013-02-06 17:15:00,
2013-02-06 12:16:00,32.0,20.9,29.68,NNW,338,11.0,12.1,63,0.00,,,0.00,WUHU216HW,2013-02-06 17:16:00,
2013-02-06 12:17:00,32.0,20.9,29.69,NW,315,10.5,12.1,63,0.00,,,0.00,WUHU216HW,2013-02-06 17:17:00,
2013-02-06 12:21:00,32.0,20.5,29.69,NNW,338,14.3,14.3,62,0.00,,,0.00,WUHU216HW,2013-02-06 17:21:00,
2013-02-06 12:22:00,32.0,20.5,29.69,NNW,338,8.5,14.3,62,0.00,,,0.00,WUHU216HW,2013-02-06 17:22:00,
2013-02-06 12:26:00,32.0,20.2,29.69,West,270,7.4,14.3,61,0.00,,,0.00,WUHU216HW,2013-02-06 17:26:00,
2013-02-06 12:27:00,32.0,20.2,29.70,NNW,338,6.3,14.3,61,0.00,,,0.00,WUHU216HW,2013-02-06 17:27:00,
2013-02-06 12:28:00,32.0,20.2,29.70,NNW,338,6.3,14.3,61,0.00,,,0.00,WUHU216HW,2013-02-06 17:28:00,
2013-02-06 12:31:00,32.2,16.9,29.69,NNW,338,11.0,15.7,53,0.00,,,0.00,WUHU216HW,2013-02-06 17:31:00,
2013-02-06 12:32:00,32.8,17.0,29.70,NW,315,10.7,17.9,52,0.00,,,0.00,WUHU216HW,2013-02-06 17:32:00,
2013-02-06 12:33:00,32.8,17.0,29.70,NW,315,10.7,17.9,52,0.00,,,0.00,WUHU216HW,2013-02-06 17:33:00,
2013-02-06 12:36:00,33.3,16.7,29.70,NW,315,6.9,17.9,50,0.00,,,0.00,WUHU216HW,2013-02-06 17:36:00,
2013-02-06 12:37:00,33.8,18.0,29.70,NNW,338,9.2,17.9,52,0.00,,,0.00,WUHU216HW,2013-02-06 17:37:00,
2013-02-06 12:38:00,33.8,18.0,29.70,NNW,338,9.2,17.9,52,0.00,,,0.00,WUHU216HW,2013-02-06 17:38:00,
2013-02-06 12:41:00,33.8,19.3,29.70,NNW,338,7.6,13.4,55,0.00,,,0.00,WUHU216HW,2013-02-06 17:41:00,
2013-02-06 12:42:00,33.8,19.7,29.70,West,270,9.8,13.4,56,0.00,,,0.00,WUHU216HW,2013-02-06 17:42:00,
2013-02-06 12:43:00,33.8,19.7,29.70,West,270,9.8,13.4,56,0.00,,,0.00,WUHU216HW,2013-02-06 17:43:00,
2013-02-06 12:46:00,33.3,19.2,29.70,North,0,10.1,17.9,56,0.00,,,0.00,WUHU216HW,2013-02-06 17:46:00,
2013-02-06 12:47:00,33.3,19.2,29.70,North,0,10.1,17.9,56,0.00,,,0.00,WUHU216HW,2013-02-06 17:47:00,
2013-02-06 12:48:00,33.1,19.4,29.70,NNW,338,8.7,17.9,57,0.00,,,0.00,WUHU216HW,2013-02-06 17:48:00,
2013-02-06 12:51:00,32.2,19.1,29.71,NW,315,12.8,17.9,58,0.00,,,0.00,WUHU216HW,2013-02-06 17:51:00,
2013-02-06 12:52:00,32.2,19.1,29.71,NW,315,12.8,17.9,58,0.00,,,0.00,WUHU216HW,2013-02-06 17:52:00,
2013-02-06 12:53:00,32.0,18.9,29.70,NNW,338,13.6,17.9,58,0.00,,,0.00,WUHU216HW,2013-02-06 17:53:00,
2013-02-06 12:56:00,31.5,19.3,29.71,NNW,338,6.7,13.6,60,0.00,,,0.00,WUHU216HW,2013-02-06 17:56:00,
2013-02-06 12:57:00,31.5,19.3,29.71,NNW,338,6.7,13.6,60,0.00,,,0.00,WUHU216HW,2013-02-06 17:57:00,
2013-02-06 12:58:00,31.3,19.1,29.71,North,0,6.3,13.6,60,0.00,,,0.00,WUHU216HW,2013-02-06 17:58:00,
2013-02-06 12:59:00,31.3,19.1,29.71,North,0,6.3,13.6,60,0.00,,,0.00,WUHU216HW,2013-02-06 17:59:00,
2013-02-06 13:01:00,31.0,18.7,29.71,NW,315,8.5,13.6,60,0.00,,,0.00,WUHU216HW,2013-02-06 18:01:00,
2013-02-06 13:02:00,30.8,18.9,29.71,NNW,338,9.2,13.6,61,0.00,,,0.00,WUHU216HW,2013-02-06 18:02:00,
2013-02-06 13:03:00,31.0,19.4,29.71,West,270,5.8,11.4,62,0.00,,,0.00,WUHU216HW,2013-02-06 18:03:00,
2013-02-06 13:04:00,31.0,19.4,29.71,NNW,338,9.8,11.4,62,0.00,,,0.00,WUHU216HW,2013-02-06 18:04:00,
2013-02-06 13:06:00,31.0,19.1,29.71,North,0,8.7,10.5,61,0.00,,,0.00,WUHU216HW,2013-02-06 18:06:00,
2013-02-06 13:07:00,30.8,18.9,29.71,NW,315,8.9,10.5,61,0.00,,,0.00,WUHU216HW,2013-02-06 18:07:00,
2013-02-06 13:08:00,31.0,18.7,29.71,NNW,338,10.1,10.5,60,0.00,,,0.00,WUHU216HW,2013-02-06 18:08:00,
2013-02-06 13:09:00,30.6,18.4,29.72,WNW,293,9.4,10.5,60,0.00,,,0.00,WUHU216HW,2013-02-06 18:09:00,
2013-02-06 13:12:00,30.8,18.9,29.71,West,270,11.4,11.4,61,0.00,,,0.00,WUHU216HW,2013-02-06 18:12:00,
2013-02-06 13:13:00,30.8,18.9,29.72,NNW,338,7.4,11.4,61,0.00,,,0.00,WUHU216HW,2013-02-06 18:13:00,
2013-02-06 13:14:00,30.8,18.9,29.72,NNW,338,18.8,18.8,61,0.00,,,0.00,WUHU216HW,2013-02-06 18:14:00,
2013-02-06 13:17:00,30.8,18.5,29.72,NNW,338,7.6,18.8,60,0.00,,,0.00,WUHU216HW,2013-02-06 18:17:00,
2013-02-06 13:18:00,31.0,18.7,29.72,NW,315,11.9,18.8,60,0.00,,,0.00,WUHU216HW,2013-02-06 18:18:00,
2013-02-06 13:19:00,30.8,18.5,29.72,NW,315,15.0,18.8,60,0.00,,,0.00,WUHU216HW,2013-02-06 18:19:00,
2013-02-06 13:22:00,30.4,18.5,29.72,NNW,338,11.2,18.8,61,0.00,,,0.00,WUHU216HW,2013-02-06 18:22:00,
2013-02-06 13:23:00,29.9,18.0,29.72,NW,315,10.3,18.8,61,0.00,,,0.00,WUHU216HW,2013-02-06 18:23:00,
2013-02-06 13:24:00,29.9,18.0,29.72,NNW,338,16.3,16.3,61,0.00,,,0.00,WUHU216HW,2013-02-06 18:24:00,
2013-02-06 13:27:00,29.3,17.9,29.72,NW,315,10.7,16.3,62,0.00,,,0.00,WUHU216HW,2013-02-06 18:27:00,
2013-02-06 13:28:00,29.3,17.9,29.72,NW,315,10.5,16.3,62,0.00,,,0.00,WUHU216HW,2013-02-06 18:28:00,
2013-02-06 13:29:00,29.3,17.9,29.72,NNW,338,8.7,16.3,62,0.00,,,0.00,WUHU216HW,2013-02-06 18:29:00,
2013-02-06 13:32:00,29.7,17.9,29.73,West,270,7.4,16.3,61,0.00,,,0.00,WUHU216HW,2013-02-06 18:32:00,
2013-02-06 13:33:00,30.2,18.7,29.73,NNW,338,9.6,16.3,62,0.00,,,0.00,WUHU216HW,2013-02-06 18:33:00,
2013-02-06 13:34:00,30.4,18.5,29.73,North,0,5.4,10.7,61,0.00,,,0.00,WUHU216HW,2013-02-06 18:34:00,
2013-02-06 13:35:00,30.4,18.5,29.73,North,0,5.4,10.7,61,0.00,,,0.00,WUHU216HW,2013-02-06 18:35:00,
2013-02-06 13:37:00,30.8,18.1,29.73,North,0,7.6,10.5,59,0.00,,,0.00,WUHU216HW,2013-02-06 18:37:00,
2013-02-06 13:38:00,31.1,17.2,29.73,North,0,9.8,11.0,56,0.00,,,0.00,WUHU216HW,2013-02-06 18:38:00,
2013-02-06 13:39:00,31.1,16.4,29.73,NW,315,10.7,11.0,54,0.00,,,0.00,WUHU216HW,2013-02-06 18:39:00,
2013-02-06 13:40:00,31.1,16.4,29.73,NW,315,10.7,11.0,54,0.00,,,0.00,WUHU216HW,2013-02-06 18:40:00,
2013-02-06 13:42:00,31.3,16.9,29.73,NW,315,9.8,11.9,55,0.00,,,0.00,WUHU216HW,2013-02-06 18:42:00,
2013-02-06 13:43:00,31.5,16.8,29.73,NW,315,8.1,11.9,54,0.00,,,0.00,WUHU216HW,2013-02-06 18:43:00,
2013-02-06 13:44:00,31.7,16.5,29.73,NW,315,9.2,11.9,53,0.00,,,0.00,WUHU216HW,2013-02-06 18:44:00,
2013-02-06 13:45:00,31.7,16.5,29.73,NW,315,9.2,11.9,53,0.00,,,0.00,WUHU216HW,2013-02-06 18:45:00,
2013-02-06 13:47:00,31.0,15.4,29.73,NNW,338,11.6,13.6,52,0.00,,,0.00,WUHU216HW,2013-02-06 18:47:00,
2013-02-06 13:48:00,30.6,15.0,29.73,North,0,9.8,13.6,52,0.00,,,0.00,WUHU216HW,2013-02-06 18:48:00,
2013-02-06 13:49:00,30.6,14.6,29.73,NNW,338,12.1,13.6,51,0.00,,,0.00,WUHU216HW,2013-02-06 18:49:00,
2013-02-06 13:50:00,30.6,14.6,29.73,NNW,338,12.1,13.6,51,0.00,,,0.00,WUHU216HW,2013-02-06 18:50:00,
2013-02-06 13:52:00,30.2,14.7,29.73,NNW,338,7.4,13.6,52,0.00,,,0.00,WUHU216HW,2013-02-06 18:52:00,
2013-02-06 13:54:00,30.2,14.7,29.73,NNW,338,8.7,13.6,52,0.00,,,0.00,WUHU216HW,2013-02-06 18:54:00,
2013-02-06 13:55:00,30.4,14.9,29.73,NW,315,9.4,13.6,52,0.00,,,0.00,WUHU216HW,2013-02-06 18:55:00,
2013-02-06 13:57:00,30.1,14.5,29.74,NW,315,9.2,12.1,52,0.00,,,0.00,WUHU216HW,2013-02-06 18:57:00,
2013-02-06 13:59:00,30.1,14.5,29.74,NNW,338,7.6,12.1,52,0.00,,,0.00,WUHU216HW,2013-02-06 18:59:00,
2013-02-06 14:00:00,29.9,14.4,29.74,West,270,13.4,13.4,52,0.00,,,0.00,WUHU216HW,2013-02-06 19:00:00,
2013-02-06 14:03:00,29.9,14.4,29.74,NW,315,10.7,13.6,52,0.00,,,0.00,WUHU216HW,2013-02-06 19:03:00,
2013-02-06 14:04:00,29.7,14.2,29.74,NNW,338,6.7,13.6,52,0.00,,,0.00,WUHU216HW,2013-02-06 19:04:00,
2013-02-06 14:05:00,29.7,14.2,29.74,NNW,338,6.7,13.6,52,0.00,,,0.00,WUHU216HW,2013-02-06 19:05:00,
2013-02-06 14:08:00,30.1,14.5,29.74,NNW,338,8.1,15.2,52,0.00,,,0.00,WUHU216HW,2013-02-06 19:08:00,
2013-02-06 14:09:00,30.1,14.5,29.74,NW,315,9.6,15.2,52,0.00,,,0.00,WUHU216HW,2013-02-06 19:09:00,
2013-02-06 14:10:00,30.1,14.5,29.74,NW,315,9.6,15.2,52,0.00,,,0.00,WUHU216HW,2013-02-06 19:10:00,
2013-02-06 14:11:00,30.2,14.7,29.74,North,0,7.6,15.2,52,0.00,,,0.00,WUHU216HW,2013-02-06 19:11:00,
2013-02-06 14:13:00,30.6,15.0,29.74,North,0,7.6,15.2,52,0.00,,,0.00,WUHU216HW,2013-02-06 19:13:00,
2013-02-06 14:14:00,30.6,15.0,29.74,NW,315,7.8,15.2,52,0.00,,,0.00,WUHU216HW,2013-02-06 19:14:00,
2013-02-06 14:15:00,30.8,14.8,29.75,North,0,11.4,15.2,51,0.00,,,0.00,WUHU216HW,2013-02-06 19:15:00,
2013-02-06 14:16:00,30.8,14.3,29.75,WNW,293,6.9,15.2,50,0.00,,,0.00,WUHU216HW,2013-02-06 19:16:00,
2013-02-06 14:18:00,30.6,14.6,29.75,WNW,293,7.6,11.4,51,0.00,,,0.00,WUHU216HW,2013-02-06 19:18:00,
2013-02-06 14:19:00,30.6,14.6,29.75,NW,315,4.7,11.4,51,0.00,,,0.00,WUHU216HW,2013-02-06 19:19:00,
2013-02-06 14:20:00,30.6,14.6,29.75,NNW,338,6.5,11.4,51,0.00,,,0.00,WUHU216HW,2013-02-06 19:20:00,
2013-02-06 14:21:00,30.8,14.8,29.75,NNW,338,5.8,11.4,51,0.00,,,0.00,WUHU216HW,2013-02-06 19:21:00,
2013-02-06 14:23:00,30.6,13.7,29.75,NNW,338,12.5,12.5,49,0.00,,,0.00,WUHU216HW,2013-02-06 19:23:00,
2013-02-06 14:24:00,30.6,14.2,29.75,NNW,338,6.5,12.5,50,0.00,,,0.00,WUHU216HW,2013-02-06 19:24:00,
2013-02-06 14:25:00,30.4,14.1,29.76,WNW,293,8.5,12.5,50,0.00,,,0.00,WUHU216HW,2013-02-06 19:25:00,
2013-02-06 14:26:00,30.4,14.4,29.76,WSW,248,4.7,12.5,51,0.00,,,0.00,WUHU216HW,2013-02-06 19:26:00,
2013-02-06 14:29:00,30.6,14.6,29.76,NNW,338,5.6,12.5,51,0.00,,,0.00,WUHU216HW,2013-02-06 19:29:00,
2013-02-06 14:31:00,30.6,14.2,29.76,WSW,248,10.5,12.5,50,0.00,,,0.00,WUHU216HW,2013-02-06 19:31:00,
2013-02-06 14:34:00,30.8,14.3,29.75,North,0,4.0,10.5,50,0.00,,,0.00,WUHU216HW,2013-02-06 19:34:00,
2013-02-06 14:36:00,31.0,14.5,29.75,NNW,338,7.4,10.5,50,0.00,,,0.00,WUHU216HW,2013-02-06 19:36:00,
2013-02-06 14:39:00,30.8,12.9,29.76,NW,315,6.3,13.6,47,0.00,,,0.00,WUHU216HW,2013-02-06 19:39:00,
2013-02-06 14:41:00,30.6,13.1,29.76,NNW,338,6.0,13.6,48,0.00,,,0.00,WUHU216HW,2013-02-06 19:41:00,
2013-02-06 14:44:00,30.8,12.9,29.76,NNW,338,8.1,13.6,47,0.00,,,0.00,WUHU216HW,2013-02-06 19:44:00,
2013-02-06 14:46:00,30.8,12.9,29.76,NW,315,11.9,13.6,47,0.00,,,0.00,WUHU216HW,2013-02-06 19:46:00,
2013-02-06 14:49:00,30.8,12.9,29.76,WNW,293,11.0,12.1,47,0.00,,,0.00,WUHU216HW,2013-02-06 19:49:00,
2013-02-06 14:50:00,30.8,12.9,29.76,NNW,338,9.8,12.1,47,0.00,,,0.00,WUHU216HW,2013-02-06 19:50:00,
2013-02-06 14:51:00,30.6,12.7,29.76,North,0,10.5,12.1,47,0.00,,,0.00,WUHU216HW,2013-02-06 19:51:00,
2013-02-06 14:54:00,30.1,12.7,29.76,North,0,9.2,13.4,48,0.00,,,0.00,WUHU216HW,2013-02-06 19:54:00,
2013-02-06 14:55:00,30.1,12.7,29.76,North,0,9.2,13.4,48,0.00,,,0.00,WUHU216HW,2013-02-06 19:55:00,
2013-02-06 14:56:00,29.9,13.1,29.77,NW,315,8.5,13.4,49,0.00,,,0.00,WUHU216HW,2013-02-06 19:56:00,
2013-02-06 14:59:00,29.7,13.8,29.77,NW,315,7.8,13.4,51,0.00,,,0.00,WUHU216HW,2013-02-06 19:59:00,
2013-02-06 15:00:00,29.7,13.8,29.77,North,0,5.4,13.4,51,0.00,,,0.00,WUHU216HW,2013-02-06 20:00:00,
2013-02-06 15:01:00,29.7,13.4,29.77,NNW,338,10.7,13.4,50,0.00,,,0.00,WUHU216HW,2013-02-06 20:01:00,
2013-02-06 15:02:00,29.7,13.8,29.77,WNW,293,7.8,13.4,51,0.00,,,0.00,WUHU216HW,2013-02-06 20:02:00,
2013-02-06 15:04:00,29.9,14.0,29.77,NW,315,4.7,10.7,51,0.00,,,0.00,WUHU216HW,2013-02-06 20:04:00,
2013-02-06 15:05:00,29.9,14.0,29.77,West,270,4.0,10.7,51,0.00,,,0.00,WUHU216HW,2013-02-06 20:05:00,
2013-02-06 15:06:00,30.1,14.1,29.77,West,270,2.7,10.7,51,0.00,,,0.00,WUHU216HW,2013-02-06 20:06:00,
2013-02-06 15:07:00,30.2,14.3,29.77,North,0,6.0,10.7,51,0.00,,,0.00,WUHU216HW,2013-02-06 20:07:00,
2013-02-06 15:09:00,30.4,14.1,29.77,NNW,338,4.9,10.7,50,0.00,,,0.00,WUHU216HW,2013-02-06 20:09:00,
2013-02-06 15:10:00,30.4,14.1,29.77,NNW,338,6.7,10.7,50,0.00,,,0.00,WUHU216HW,2013-02-06 20:10:00,
2013-02-06 15:11:00,30.6,14.2,29.77,North,0,8.1,8.1,50,0.00,,,0.00,WUHU216HW,2013-02-06 20:11:00,
2013-02-06 15:12:00,30.6,13.7,29.76,North,0,9.2,9.2,49,0.00,,,0.00,WUHU216HW,2013-02-06 20:12:00,
2013-02-06 15:15:00,30.4,13.1,29.78,WNW,293,13.6,15.2,48,0.00,,,0.00,WUHU216HW,2013-02-06 20:15:00,
2013-02-06 15:16:00,30.4,13.1,29.78,WNW,293,7.2,15.2,48,0.00,,,0.00,WUHU216HW,2013-02-06 20:16:00,
2013-02-06 15:17:00,30.2,12.3,29.77,West,270,9.6,15.2,47,0.00,,,0.00,WUHU216HW,2013-02-06 20:17:00,
2013-02-06 15:20:00,30.2,11.9,29.78,West,270,13.2,15.2,46,0.00,,,0.00,WUHU216HW,2013-02-06 20:20:00,
2013-02-06 15:21:00,30.2,11.9,29.78,West,270,13.2,15.2,46,0.00,,,0.00,WUHU216HW,2013-02-06 20:21:00,
2013-02-06 15:22:00,30.1,10.7,29.78,West,270,6.7,15.2,44,0.00,,,0.00,WUHU216HW,2013-02-06 20:22:00,
2013-02-06 15:25:00,30.1,10.7,29.78,NW,315,9.6,13.2,44,0.00,,,0.00,WUHU216HW,2013-02-06 20:25:00,
2013-02-06 15:26:00,30.1,10.7,29.78,NW,315,9.6,13.2,44,0.00,,,0.00,WUHU216HW,2013-02-06 20:26:00,
2013-02-06 15:27:00,30.1,10.2,29.78,NNW,338,9.4,13.2,43,0.00,,,0.00,WUHU216HW,2013-02-06 20:27:00,
2013-02-06 15:30:00,29.9,10.0,29.79,NW,315,6.0,10.3,43,0.00,,,0.00,WUHU216HW,2013-02-06 20:30:00,
2013-02-06 15:31:00,29.9,10.0,29.79,NW,315,6.0,10.3,43,0.00,,,0.00,WUHU216HW,2013-02-06 20:31:00,
2013-02-06 15:32:00,29.9,10.0,29.79,NW,315,7.4,10.3,43,0.00,,,0.00,WUHU216HW,2013-02-06 20:32:00,
2013-02-06 15:35:00,29.9,9.0,29.79,SW,225,8.9,10.5,41,0.00,,,0.00,WUHU216HW,2013-02-06 20:35:00,
2013-02-06 15:36:00,29.9,9.0,29.79,SW,225,8.9,10.5,41,0.00,,,0.00,WUHU216HW,2013-02-06 20:36:00,
2013-02-06 15:37:00,29.7,8.8,29.79,West,270,15.0,15.0,41,0.00,,,0.00,WUHU216HW,2013-02-06 20:37:00,
2013-02-06 15:40:00,29.7,8.8,29.79,West,270,8.9,15.0,41,0.00,,,0.00,WUHU216HW,2013-02-06 20:40:00,
2013-02-06 15:41:00,29.7,8.8,29.79,West,270,8.9,15.0,41,0.00,,,0.00,WUHU216HW,2013-02-06 20:41:00,
2013-02-06 15:42:00,29.7,8.8,29.79,North,0,6.7,15.0,41,0.00,,,0.00,WUHU216HW,2013-02-06 20:42:00,
2013-02-06 15:45:00,29.5,8.6,29.79,WSW,248,11.9,15.0,41,0.00,,,0.00,WUHU216HW,2013-02-06 20:45:00,
2013-02-06 15:46:00,29.5,8.6,29.79,WSW,248,11.9,15.0,41,0.00,,,0.00,WUHU216HW,2013-02-06 20:46:00,
2013-02-06 15:47:00,29.7,9.4,29.79,NW,315,7.8,15.0,42,0.00,,,0.00,WUHU216HW,2013-02-06 20:47:00,
2013-02-06 15:51:00,29.3,8.6,29.79,WNW,293,8.5,11.9,41,0.00,,,0.00,WUHU216HW,2013-02-06 20:51:00,
2013-02-06 15:52:00,29.2,8.4,29.79,NNW,338,13.4,13.4,41,0.00,,,0.00,WUHU216HW,2013-02-06 20:52:00,
2013-02-06 15:56:00,28.8,8.0,29.79,NNW,338,7.8,13.4,41,0.00,,,0.00,WUHU216HW,2013-02-06 20:56:00,
2013-02-06 15:57:00,28.8,7.6,29.80,NNW,338,11.6,13.4,40,0.00,,,0.00,WUHU216HW,2013-02-06 20:57:00,
2013-02-06 15:58:00,28.8,7.6,29.79,NW,315,6.7,13.4,40,0.00,,,0.00,WUHU216HW,2013-02-06 20:58:00,
2013-02-06 16:01:00,28.6,6.1,29.80,NW,315,8.5,14.5,38,0.00,,,0.00,WUHU216HW,2013-02-06 21:01:00,
2013-02-06 16:02:00,28.6,6.1,29.80,NNW,338,9.2,14.5,38,0.00,,,0.00,WUHU216HW,2013-02-06 21:02:00,
2013-02-06 16:03:00,28.6,6.1,29.80,NW,315,11.2,14.5,38,0.00,,,0.00,WUHU216HW,2013-02-06 21:03:00,
2013-02-06 16:06:00,28.4,6.6,29.80,NNW,338,7.8,14.5,39,0.00,,,0.00,WUHU216HW,2013-02-06 21:06:00,
2013-02-06 16:07:00,28.4,6.6,29.80,NNW,338,6.5,14.5,39,0.00,,,0.00,WUHU216HW,2013-02-06 21:07:00,
2013-02-06 16:08:00,28.4,6.6,29.80,NNW,338,8.5,14.5,39,0.00,,,0.00,WUHU216HW,2013-02-06 21:08:00,
2013-02-06 16:11:00,28.4,7.2,29.80,NW,315,7.2,11.9,40,0.00,,,0.00,WUHU216HW,2013-02-06 21:11:00,
2013-02-06 16:12:00,28.4,7.2,29.80,NW,315,7.2,11.9,40,0.00,,,0.00,WUHU216HW,2013-02-06 21:12:00,
2013-02-06 16:13:00,28.4,7.2,29.81,NNW,338,6.7,11.9,40,0.00,,,0.00,WUHU216HW,2013-02-06 21:13:00,
2013-02-06 16:16:00,28.3,7.0,29.81,NNW,338,5.1,9.2,40,0.00,,,0.00,WUHU216HW,2013-02-06 21:16:00,
2013-02-06 16:17:00,28.3,7.0,29.81,NNW,338,5.1,9.2,40,0.00,,,0.00,WUHU216HW,2013-02-06 21:17:00,
2013-02-06 16:18:00,28.3,7.0,29.81,NW,315,8.5,9.2,40,0.00,,,0.00,WUHU216HW,2013-02-06 21:18:00,
2013-02-06 16:21:00,28.3,6.4,29.81,NNW,338,6.9,9.2,39,0.00,,,0.00,WUHU216HW,2013-02-06 21:21:00,
2013-02-06 16:22:00,28.1,6.2,29.81,NNW,338,8.5,9.2,39,0.00,,,0.00,WUHU216HW,2013-02-06 21:22:00,
2013-02-06 16:23:00,28.1,5.6,29.81,WNW,293,12.3,12.3,38,0.00,,,0.00,WUHU216HW,2013-02-06 21:23:00,
2013-02-06 16:26:00,27.7,6.0,29.81,North,0,6.9,13.6,39,0.00,,,0.00,WUHU216HW,2013-02-06 21:26:00,
2013-02-06 16:27:00,27.7,6.0,29.81,NNW,338,8.1,13.6,39,0.00,,,0.00,WUHU216HW,2013-02-06 21:27:00,
2013-02-06 16:29:00,27.7,6.0,29.81,NW,315,7.2,13.6,39,0.00,,,0.00,WUHU216HW,2013-02-06 21:29:00,
2013-02-06 16:32:00,27.5,5.8,29.82,North,0,4.7,13.6,39,0.00,,,0.00,WUHU216HW,2013-02-06 21:32:00,
2013-02-06 16:34:00,27.5,6.4,29.82,North,0,5.1,13.6,40,0.00,,,0.00,WUHU216HW,2013-02-06 21:34:00,
2013-02-06 16:37:00,27.4,6.2,29.82,NNW,338,9.2,9.4,40,0.00,,,0.00,WUHU216HW,2013-02-06 21:37:00,
2013-02-06 16:39:00,27.4,6.2,29.82,North,0,7.6,9.4,40,0.00,,,0.00,WUHU216HW,2013-02-06 21:39:00,
2013-02-06 16:42:00,27.2,6.6,29.82,NNW,338,3.8,9.4,41,0.00,,,0.00,WUHU216HW,2013-02-06 21:42:00,
2013-02-06 16:44:00,27.2,6.6,29.82,West,270,7.2,9.2,41,0.00,,,0.00,WUHU216HW,2013-02-06 21:44:00,
2013-02-06 16:47:00,27.0,6.4,29.82,NNW,338,5.4,8.5,41,0.00,,,0.00,WUHU216HW,2013-02-06 21:47:00,
2013-02-06 16:48:00,27.0,6.4,29.82,NNW,338,4.7,8.5,41,0.00,,,0.00,WUHU216HW,2013-02-06 21:48:00,
2013-02-06 16:49:00,27.0,6.4,29.82,NW,315,6.5,8.5,41,0.00,,,0.00,WUHU216HW,2013-02-06 21:49:00,
2013-02-06 16:52:00,26.8,6.2,29.83,SW,225,9.8,9.8,41,0.00,,,0.00,WUHU216HW,2013-02-06 21:52:00,
2013-02-06 16:53:00,26.8,6.2,29.83,SW,225,9.8,9.8,41,0.00,,,0.00,WUHU216HW,2013-02-06 21:53:00,
2013-02-06 16:54:00,26.6,5.6,29.83,NNW,338,4.0,9.8,40,0.00,,,0.00,WUHU216HW,2013-02-06 21:54:00,
2013-02-06 16:57:00,26.5,4.8,29.83,NW,315,6.3,11.6,39,0.00,,,0.00,WUHU216HW,2013-02-06 21:57:00,
2013-02-06 16:58:00,26.5,4.8,29.83,NW,315,6.3,11.6,39,0.00,,,0.00,WUHU216HW,2013-02-06 21:58:00,
2013-02-06 16:59:00,26.3,5.2,29.84,NW,315,10.1,11.6,40,0.00,,,0.00,WUHU216HW,2013-02-06 21:59:00,
2013-02-06 17:02:00,26.1,3.9,29.83,West,270,19.2,19.2,38,0.00,,,0.00,WUHU216HW,2013-02-06 22:02:00,
2013-02-06 17:03:00,26.1,3.9,29.83,NW,315,7.2,19.2,38,0.00,,,0.00,WUHU216HW,2013-02-06 22:03:00,
2013-02-06 17:04:00,26.1,4.5,29.83,WSW,248,7.4,19.2,39,0.00,,,0.00,WUHU216HW,2013-02-06 22:04:00,
2013-02-06 17:07:00,25.9,4.3,29.83,WNW,293,11.4,19.2,39,0.00,,,0.00,WUHU216HW,2013-02-06 22:07:00,
2013-02-06 17:08:00,25.7,4.1,29.83,NNW,338,6.3,19.2,39,0.00,,,0.00,WUHU216HW,2013-02-06 22:08:00,
2013-02-06 17:09:00,25.7,4.1,29.84,NNW,338,5.1,19.2,39,0.00,,,0.00,WUHU216HW,2013-02-06 22:09:00,
2013-02-06 17:12:00,25.7,4.1,29.84,NW,315,4.9,11.4,39,0.00,,,0.00,WUHU216HW,2013-02-06 22:12:00,
2013-02-06 17:13:00,25.6,4.0,29.84,NW,315,8.1,11.4,39,0.00,,,0.00,WUHU216HW,2013-02-06 22:13:00,
2013-02-06 17:14:00,25.6,4.0,29.84,NW,315,8.5,11.4,39,0.00,,,0.00,WUHU216HW,2013-02-06 22:14:00,
2013-02-06 17:18:00,25.6,4.0,29.84,NNW,338,6.9,10.1,39,0.00,,,0.00,WUHU216HW,2013-02-06 22:18:00,
2013-02-06 17:20:00,25.4,3.9,29.84,NW,315,6.3,10.1,39,0.00,,,0.00,WUHU216HW,2013-02-06 22:20:00,
2013-02-06 17:23:00,25.4,3.3,29.84,NNW,338,11.0,11.0,38,0.00,,,0.00,WUHU216HW,2013-02-06 22:23:00,
2013-02-06 17:25:00,25.4,3.3,29.84,NNW,338,6.9,11.0,38,0.00,,,0.00,WUHU216HW,2013-02-06 22:25:00,
2013-02-06 17:28:00,25.2,3.1,29.85,WNW,293,11.2,11.4,38,0.00,,,0.00,WUHU216HW,2013-02-06 22:28:00,
2013-02-06 17:30:00,25.0,2.9,29.85,West,270,9.8,11.4,38,0.00,,,0.00,WUHU216HW,2013-02-06 22:30:00,
2013-02-06 17:33:00,24.8,2.7,29.85,NNW,338,13.4,13.4,38,0.00,,,0.00,WUHU216HW,2013-02-06 22:33:00,
2013-02-06 17:34:00,24.8,2.7,29.85,NNW,338,13.4,13.4,38,0.00,,,0.00,WUHU216HW,2013-02-06 22:34:00,
2013-02-06 17:35:00,25.0,2.3,29.85,NNW,338,11.4,16.3,37,0.00,,,0.00,WUHU216HW,2013-02-06 22:35:00,
2013-02-06 17:38:00,24.8,2.2,29.85,NNW,338,11.2,16.3,37,0.00,,,0.00,WUHU216HW,2013-02-06 22:38:00,
2013-02-06 17:39:00,24.8,2.2,29.85,NNW,338,7.6,16.3,37,0.00,,,0.00,WUHU216HW,2013-02-06 22:39:00,
2013-02-06 17:40:00,24.8,2.2,29.85,WSW,248,13.6,16.3,37,0.00,,,0.00,WUHU216HW,2013-02-06 22:40:00,
2013-02-06 17:43:00,24.8,2.2,29.86,NW,315,11.0,16.3,37,0.00,,,0.00,WUHU216HW,2013-02-06 22:43:00,
2013-02-06 17:44:00,24.8,2.2,29.86,NW,315,10.3,15.9,37,0.00,,,0.00,WUHU216HW,2013-02-06 22:44:00,
2013-02-06 17:45:00,24.7,2.0,29.86,North,0,9.8,15.9,37,0.00,,,0.00,WUHU216HW,2013-02-06 22:45:00,
2013-02-06 17:48:00,24.7,2.6,29.86,WNW,293,8.5,15.9,38,0.00,,,0.00,WUHU216HW,2013-02-06 22:48:00,
2013-02-06 17:49:00,24.7,2.6,29.86,North,0,4.3,15.9,38,0.00,,,0.00,WUHU216HW,2013-02-06 22:49:00,
2013-02-06 17:50:00,24.5,2.4,29.86,NW,315,10.5,15.9,38,0.00,,,0.00,WUHU216HW,2013-02-06 22:50:00,
2013-02-06 17:53:00,24.3,2.3,29.86,NNW,338,6.9,10.5,38,0.00,,,0.00,WUHU216HW,2013-02-06 22:53:00,
2013-02-06 17:54:00,24.3,2.9,29.86,WNW,293,6.3,10.5,39,0.00,,,0.00,WUHU216HW,2013-02-06 22:54:00,
2013-02-06 17:55:00,24.3,2.9,29.86,NW,315,7.4,10.5,39,0.00,,,0.00,WUHU216HW,2013-02-06 22:55:00,
2013-02-06 17:58:00,24.1,2.1,29.87,NW,315,12.5,13.2,38,0.00,,,0.00,WUHU216HW,2013-02-06 22:58:00,
2013-02-06 17:59:00,24.1,2.7,29.86,North,0,7.2,13.2,39,0.00,,,0.00,WUHU216HW,2013-02-06 22:59:00,
2013-02-06 18:00:00,24.1,2.7,29.87,NNW,338,7.6,13.2,39,0.00,,,0.00,WUHU216HW,2013-02-06 23:00:00,
2013-02-06 18:03:00,24.1,2.7,29.87,NW,315,12.3,13.2,39,0.00,,,0.00,WUHU216HW,2013-02-06 23:03:00,
2013-02-06 18:04:00,24.1,2.7,29.87,WNW,293,9.8,13.2,39,0.00,,,0.00,WUHU216HW,2013-02-06 23:04:00,
2013-02-06 18:05:00,24.1,2.7,29.87,West,270,9.8,13.2,39,0.00,,,0.00,WUHU216HW,2013-02-06 23:05:00,
2013-02-06 18:08:00,24.1,2.7,29.87,NW,315,11.4,12.3,39,0.00,,,0.00,WUHU216HW,2013-02-06 23:08:00,
2013-02-06 18:10:00,23.9,2.5,29.88,NNW,338,15.4,15.4,39,0.00,,,0.00,WUHU216HW,2013-02-06 23:10:00,
2013-02-06 18:13:00,23.9,3.2,29.88,NNW,338,6.5,15.4,40,0.00,,,0.00,WUHU216HW,2013-02-06 23:13:00,
2013-02-06 18:15:00,23.8,3.0,29.88,NW,315,8.1,15.4,40,0.00,,,0.00,WUHU216HW,2013-02-06 23:15:00,
2013-02-06 18:18:00,23.8,3.5,29.88,NNW,338,3.4,15.4,41,0.00,,,0.00,WUHU216HW,2013-02-06 23:18:00,
2013-02-06 18:20:00,23.6,3.3,29.88,WNW,293,5.1,11.6,41,0.00,,,0.00,WUHU216HW,2013-02-06 23:20:00,
2013-02-06 18:21:00,23.4,3.6,29.88,NW,315,6.3,11.6,42,0.00,,,0.00,WUHU216HW,2013-02-06 23:21:00,
2013-02-06 18:23:00,23.4,3.6,29.89,NW,315,6.5,10.7,42,0.00,,,0.00,WUHU216HW,2013-02-06 23:23:00,
2013-02-06 18:25:00,23.4,3.6,29.89,NW,315,4.5,6.5,42,0.00,,,0.00,WUHU216HW,2013-02-06 23:25:00,
2013-02-06 18:26:00,23.4,3.6,29.89,NW,315,6.3,6.5,42,0.00,,,0.00,WUHU216HW,2013-02-06 23:26:00,
2013-02-06 18:29:00,23.2,4.0,29.89,NNW,338,2.2,6.5,43,0.00,,,0.00,WUHU216HW,2013-02-06 23:29:00,
2013-02-06 18:30:00,23.0,3.8,29.89,North,0,7.8,7.8,43,0.00,,,0.00,WUHU216HW,2013-02-06 23:30:00,
2013-02-06 18:31:00,23.0,3.8,29.89,NW,315,4.7,7.8,43,0.00,,,0.00,WUHU216HW,2013-02-06 23:31:00,
2013-02-06 18:34:00,23.0,3.8,29.89,NW,315,6.9,7.8,43,0.00,,,0.00,WUHU216HW,2013-02-06 23:34:00,
2013-02-06 18:36:00,22.9,3.6,29.89,WNW,293,9.8,9.8,43,0.00,,,0.00,WUHU216HW,2013-02-06 23:36:00,
2013-02-06 18:39:00,23.0,4.3,29.90,WNW,293,6.9,9.8,44,0.00,,,0.00,WUHU216HW,2013-02-06 23:39:00,
2013-02-06 18:41:00,22.9,4.2,29.90,North,0,11.6,11.6,44,0.00,,,0.00,WUHU216HW,2013-02-06 23:41:00,
2013-02-06 18:44:00,22.9,4.2,29.90,NW,315,5.6,12.8,44,0.00,,,0.00,WUHU216HW,2013-02-06 23:44:00,
2013-02-06 18:46:00,22.9,4.2,29.90,NNW,338,9.8,12.8,44,0.00,,,0.00,WUHU216HW,2013-02-06 23:46:00,
2013-02-06 18:49:00,22.9,4.2,29.90,NW,315,4.7,12.8,44,0.00,,,0.00,WUHU216HW,2013-02-06 23:49:00,
2013-02-06 18:51:00,22.9,4.2,29.90,NNW,338,4.9,12.8,44,0.00,,,0.00,WUHU216HW,2013-02-06 23:51:00,
2013-02-06 18:54:00,22.9,4.2,29.90,NNW,338,3.6,11.4,44,0.00,,,0.00,WUHU216HW,2013-02-06 23:54:00,
2013-02-06 18:56:00,22.7,4.0,29.90,WNW,293,5.4,11.4,44,0.00,,,0.00,WUHU216HW,2013-02-06 23:56:00,
2013-02-06 18:57:00,22.7,4.0,29.91,NW,315,5.4,11.4,44,0.00,,,0.00,WUHU216HW,2013-02-06 23:57:00,
2013-02-06 19:00:00,22.5,3.8,29.91,WNW,293,4.7,11.4,44,0.00,,,0.00,WUHU216HW,2013-02-07 00:00:00,
2013-02-06 19:01:00,22.5,3.8,29.91,NNW,338,3.4,11.4,44,0.00,,,0.00,WUHU216HW,2013-02-07 00:01:00,
2013-02-06 19:02:00,22.3,3.6,29.90,North,0,5.4,5.4,44,0.00,,,0.00,WUHU216HW,2013-02-07 00:02:00,
2013-02-06 19:05:00,22.1,3.4,29.91,West,270,6.3,6.3,44,0.00,,,0.00,WUHU216HW,2013-02-07 00:05:00,
2013-02-06 19:06:00,22.1,3.4,29.91,WNW,293,7.4,7.4,44,0.00,,,0.00,WUHU216HW,2013-02-07 00:06:00,
2013-02-06 19:07:00,22.1,4.0,29.91,NNW,338,3.4,7.4,45,0.00,,,0.00,WUHU216HW,2013-02-07 00:07:00,
2013-02-06 19:10:00,22.0,3.8,29.91,NNW,338,4.5,7.4,45,0.00,,,0.00,WUHU216HW,2013-02-07 00:10:00,
2013-02-06 19:11:00,22.1,4.0,29.92,West,270,6.3,7.4,45,0.00,,,0.00,WUHU216HW,2013-02-07 00:11:00,
2013-02-06 19:12:00,22.1,4.0,29.92,NW,315,8.5,8.5,45,0.00,,,0.00,WUHU216HW,2013-02-07 00:12:00,
2013-02-06 19:13:00,22.0,3.8,29.92,NW,315,9.4,9.4,45,0.00,,,0.00,WUHU216HW,2013-02-07 00:13:00,
2013-02-06 19:15:00,22.1,4.0,29.92,NW,315,4.0,9.4,45,0.00,,,0.00,WUHU216HW,2013-02-07 00:15:00,
2013-02-06 19:16:00,22.1,4.0,29.92,NW,315,8.1,9.4,45,0.00,,,0.00,WUHU216HW,2013-02-07 00:16:00,
2013-02-06 19:17:00,22.0,3.8,29.92,NW,315,5.8,9.4,45,0.00,,,0.00,WUHU216HW,2013-02-07 00:17:00,
2013-02-06 19:18:00,22.1,4.0,29.92,WNW,293,6.7,9.4,45,0.00,,,0.00,WUHU216HW,2013-02-07 00:18:00,
2013-02-06 19:20:00,22.0,3.8,29.91,NW,315,7.8,9.4,45,0.00,,,0.00,WUHU216HW,2013-02-07 00:20:00,
2013-02-06 19:21:00,22.0,3.8,29.91,North,0,2.5,9.4,45,0.00,,,0.00,WUHU216HW,2013-02-07 00:21:00,
2013-02-06 19:22:00,22.0,3.8,29.91,NW,315,2.9,9.4,45,0.00,,,0.00,WUHU216HW,2013-02-07 00:22:00,
2013-02-06 19:23:00,22.0,4.2,29.92,North,0,5.4,9.2,46,0.00,,,0.00,WUHU216HW,2013-02-07 00:23:00,
2013-02-06 19:25:00,22.0,4.2,29.92,WSW,248,6.7,9.2,46,0.00,,,0.00,WUHU216HW,2013-02-07 00:25:00,
2013-02-06 19:26:00,22.0,4.2,29.92,North,0,6.3,9.2,46,0.00,,,0.00,WUHU216HW,2013-02-07 00:26:00,
2013-02-06 19:27:00,21.8,4.1,29.92,WNW,293,12.8,12.8,46,0.00,,,0.00,WUHU216HW,2013-02-07 00:27:00,
2013-02-06 19:28:00,21.8,4.1,29.92,NNW,338,2.2,12.8,46,0.00,,,0.00,WUHU216HW,2013-02-07 00:28:00,
2013-02-06 19:30:00,21.8,4.1,29.92,North,0,6.7,12.8,46,0.00,,,0.00,WUHU216HW,2013-02-07 00:30:00,
2013-02-06 19:31:00,21.8,4.5,29.92,WNW,293,6.7,12.8,47,0.00,,,0.00,WUHU216HW,2013-02-07 00:31:00,
2013-02-06 19:32:00,21.8,4.5,29.92,NNW,338,6.5,12.8,47,0.00,,,0.00,WUHU216HW,2013-02-07 00:32:00,
2013-02-06 19:33:00,21.8,4.5,29.92,West,270,6.3,12.8,47,0.00,,,0.00,WUHU216HW,2013-02-07 00:33:00,
2013-02-06 19:36:00,21.6,4.3,29.92,NNW,338,5.8,12.8,47,0.00,,,0.00,WUHU216HW,2013-02-07 00:36:00,
2013-02-06 19:37:00,21.6,4.3,29.92,NNW,338,7.4,7.4,47,0.00,,,0.00,WUHU216HW,2013-02-07 00:37:00,
2013-02-06 19:38:00,21.6,4.3,29.92,NNW,338,6.9,7.4,47,0.00,,,0.00,WUHU216HW,2013-02-07 00:38:00,
2013-02-06 19:41:00,21.6,4.9,29.92,NNW,338,9.2,12.1,48,0.00,,,0.00,WUHU216HW,2013-02-07 00:41:00,
2013-02-06 19:42:00,21.6,4.9,29.92,NNW,338,9.2,12.1,48,0.00,,,0.00,WUHU216HW,2013-02-07 00:42:00,
2013-02-06 19:43:00,21.6,4.9,29.92,WNW,293,5.4,12.1,48,0.00,,,0.00,WUHU216HW,2013-02-07 00:43:00,
2013-02-06 19:46:00,21.4,4.7,29.92,WNW,293,7.4,12.1,48,0.00,,,0.00,WUHU216HW,2013-02-07 00:46:00,
2013-02-06 19:47:00,21.4,5.1,29.92,NW,315,5.4,12.1,49,0.00,,,0.00,WUHU216HW,2013-02-07 00:47:00,
2013-02-06 19:48:00,21.4,4.7,29.92,North,0,5.6,12.1,48,0.00,,,0.00,WUHU216HW,2013-02-07 00:48:00,
2013-02-06 19:51:00,21.4,5.1,29.92,NNW,338,6.9,8.5,49,0.00,,,0.00,WUHU216HW,2013-02-07 00:51:00,
2013-02-06 19:52:00,21.2,5.0,29.92,NW,315,7.8,8.5,49,0.00,,,0.00,WUHU216HW,2013-02-07 00:52:00,
2013-02-06 19:53:00,21.2,5.0,29.92,NW,315,3.8,8.5,49,0.00,,,0.00,WUHU216HW,2013-02-07 00:53:00,
2013-02-06 19:57:00,21.2,5.4,29.93,North,0,4.0,8.5,50,0.00,,,0.00,WUHU216HW,2013-02-07 00:57:00,
2013-02-06 19:58:00,21.2,5.4,29.93,NNW,338,5.1,8.5,50,0.00,,,0.00,WUHU216HW,2013-02-07 00:58:00,
2013-02-06 20:02:00,21.1,5.2,29.93,NW,315,14.5,14.5,50,0.00,,,0.00,WUHU216HW,2013-02-07 01:02:00,
2013-02-06 20:04:00,21.1,5.7,29.93,NNW,338,6.9,14.5,51,0.00,,,0.00,WUHU216HW,2013-02-07 01:04:00,
2013-02-06 20:07:00,20.9,5.5,29.93,North,0,3.4,14.5,51,0.00,,,0.00,WUHU216HW,2013-02-07 01:07:00,
2013-02-06 20:08:00,20.9,5.5,29.93,NW,315,2.9,14.5,51,0.00,,,0.00,WUHU216HW,2013-02-07 01:08:00,
2013-02-06 20:09:00,20.9,5.5,29.94,WNW,293,7.4,14.5,51,0.00,,,0.00,WUHU216HW,2013-02-07 01:09:00,
2013-02-06 20:12:00,20.7,5.8,29.94,NNW,338,4.5,7.4,52,0.00,,,0.00,WUHU216HW,2013-02-07 01:12:00,
2013-02-06 20:13:00,20.7,5.8,29.94,North,0,3.1,7.4,52,0.00,,,0.00,WUHU216HW,2013-02-07 01:13:00,
2013-02-06 20:14:00,20.7,5.8,29.94,WNW,293,6.3,7.4,52,0.00,,,0.00,WUHU216HW,2013-02-07 01:14:00,
2013-02-06 20:17:00,20.7,5.8,29.94,NW,315,3.8,7.4,52,0.00,,,0.00,WUHU216HW,2013-02-07 01:17:00,
2013-02-06 20:18:00,20.5,5.6,29.94,WNW,293,8.7,8.7,52,0.00,,,0.00,WUHU216HW,2013-02-07 01:18:00,
2013-02-06 20:19:00,20.5,5.6,29.94,NW,315,6.3,8.7,52,0.00,,,0.00,WUHU216HW,2013-02-07 01:19:00,
2013-02-06 20:22:00,20.5,5.9,29.95,NNW,338,6.5,8.7,53,0.00,,,0.00,WUHU216HW,2013-02-07 01:22:00,
2013-02-06 20:23:00,20.5,5.9,29.95,NNW,338,2.5,8.7,53,0.00,,,0.00,WUHU216HW,2013-02-07 01:23:00,
2013-02-06 20:24:00,20.5,5.9,29.95,NNW,338,6.5,8.7,53,0.00,,,0.00,WUHU216HW,2013-02-07 01:24:00,
2013-02-06 20:27:00,20.5,5.9,29.95,NW,315,8.3,8.7,53,0.00,,,0.00,WUHU216HW,2013-02-07 01:27:00,
2013-02-06 20:28:00,20.5,5.9,29.95,NW,315,8.3,8.5,53,0.00,,,0.00,WUHU216HW,2013-02-07 01:28:00,
2013-02-06 20:29:00,20.5,6.4,29.95,NNE,23,2.5,8.5,54,0.00,,,0.00,WUHU216HW,2013-02-07 01:29:00,
2013-02-06 20:32:00,20.5,6.4,29.95,NW,315,6.7,8.5,54,0.00,,,0.00,WUHU216HW,2013-02-07 01:32:00,
2013-02-06 20:33:00,20.5,6.4,29.95,NNW,338,3.6,8.5,54,0.00,,,0.00,WUHU216HW,2013-02-07 01:33:00,
2013-02-06 20:34:00,20.5,6.4,29.95,NNW,338,3.4,8.5,54,0.00,,,0.00,WUHU216HW,2013-02-07 01:34:00,
2013-02-06 20:37:00,20.3,6.7,29.95,NNW,338,11.0,11.0,55,0.00,,,0.00,WUHU216HW,2013-02-07 01:37:00,
2013-02-06 20:38:00,20.3,6.7,29.95,NW,315,6.7,11.0,55,0.00,,,0.00,WUHU216HW,2013-02-07 01:38:00,
2013-02-06 20:39:00,20.3,6.7,29.95,NW,315,6.7,11.0,55,0.00,,,0.00,WUHU216HW,2013-02-07 01:39:00,
2013-02-06 20:42:00,20.2,6.5,29.96,NNW,338,5.8,11.0,55,0.00,,,0.00,WUHU216HW,2013-02-07 01:42:00,
2013-02-06 20:43:00,20.2,6.5,29.96,NW,315,3.6,11.0,55,0.00,,,0.00,WUHU216HW,2013-02-07 01:43:00,
2013-02-06 20:44:00,20.2,6.5,29.96,NW,315,4.0,11.0,55,0.00,,,0.00,WUHU216HW,2013-02-07 01:44:00,
2013-02-06 20:47:00,20.2,6.5,29.96,NNW,338,5.4,7.2,55,0.00,,,0.00,WUHU216HW,2013-02-07 01:47:00,
2013-02-06 20:48:00,20.0,6.3,29.96,NW,315,6.7,7.2,55,0.00,,,0.00,WUHU216HW,2013-02-07 01:48:00,
2013-02-06 20:49:00,20.0,6.3,29.96,NNW,338,4.0,6.7,55,0.00,,,0.00,WUHU216HW,2013-02-07 01:49:00,
2013-02-06 20:52:00,20.0,6.3,29.96,WNW,293,4.0,6.7,55,0.00,,,0.00,WUHU216HW,2013-02-07 01:52:00,
2013-02-06 20:53:00,20.0,6.3,29.97,NNW,338,1.8,6.7,55,0.00,,,0.00,WUHU216HW,2013-02-07 01:53:00,
2013-02-06 20:54:00,19.8,6.5,29.96,NNW,338,7.8,7.8,56,0.00,,,0.00,WUHU216HW,2013-02-07 01:54:00,
2013-02-06 20:55:00,19.8,6.1,29.96,NW,315,6.3,7.8,55,0.00,,,0.00,WUHU216HW,2013-02-07 01:55:00,
2013-02-06 20:57:00,19.8,6.1,29.97,NW,315,2.5,7.8,55,0.00,,,0.00,WUHU216HW,2013-02-07 01:57:00,
2013-02-06 20:58:00,19.8,6.1,29.97,North,0,1.8,7.8,55,0.00,,,0.00,WUHU216HW,2013-02-07 01:58:00,
2013-02-06 20:59:00,19.8,6.1,29.97,NNW,338,2.0,7.8,55,0.00,,,0.00,WUHU216HW,2013-02-07 01:59:00,
2013-02-06 21:00:00,19.8,6.1,29.97,NW,315,3.4,7.8,55,0.00,,,0.00,WUHU216HW,2013-02-07 02:00:00,
2013-02-06 21:02:00,19.8,6.5,29.97,North,0,3.6,7.8,56,0.00,,,0.00,WUHU216HW,2013-02-07 02:02:00,
2013-02-06 21:03:00,19.6,6.3,29.97,NW,315,3.1,7.8,56,0.00,,,0.00,WUHU216HW,2013-02-07 02:03:00,
2013-02-06 21:04:00,19.6,6.3,29.97,NW,315,4.0,6.3,56,0.00,,,0.00,WUHU216HW,2013-02-07 02:04:00,
2013-02-06 21:05:00,19.6,6.3,29.97,NNW,338,1.3,4.0,56,0.00,,,0.00,WUHU216HW,2013-02-07 02:05:00,
2013-02-06 21:08:00,19.6,6.8,29.97,North,0,2.5,4.0,57,0.00,,,0.00,WUHU216HW,2013-02-07 02:08:00,
2013-02-06 21:09:00,19.6,6.8,29.97,North,0,3.4,4.0,57,0.00,,,0.00,WUHU216HW,2013-02-07 02:09:00,
2013-02-06 21:10:00,19.6,6.8,29.97,NNW,338,2.5,4.0,57,0.00,,,0.00,WUHU216HW,2013-02-07 02:10:00,
2013-02-06 21:13:00,19.4,6.6,29.98,NNE,23,10.3,10.3,57,0.00,,,0.00,WUHU216HW,2013-02-07 02:13:00,
2013-02-06 21:15:00,19.4,6.9,29.98,NW,315,4.7,10.3,58,0.00,,,0.00,WUHU216HW,2013-02-07 02:15:00,
2013-02-06 21:18:00,19.4,6.9,29.98,NW,315,4.0,10.3,58,0.00,,,0.00,WUHU216HW,2013-02-07 02:18:00,
2013-02-06 21:20:00,19.4,6.9,29.99,North,0,2.7,10.3,58,0.00,,,0.00,WUHU216HW,2013-02-07 02:20:00,
2013-02-06 21:21:00,19.4,6.9,29.99,North,0,2.7,10.3,58,0.00,,,0.00,WUHU216HW,2013-02-07 02:21:00,
2013-02-06 21:23:00,19.4,6.9,29.99,NW,315,3.4,8.5,58,0.00,,,0.00,WUHU216HW,2013-02-07 02:23:00,
2013-02-06 21:25:00,19.4,6.9,29.99,West,270,3.6,4.5,58,0.00,,,0.00,WUHU216HW,2013-02-07 02:25:00,
2013-02-06 21:26:00,19.3,6.8,29.99,NNW,338,1.8,4.5,58,0.00,,,0.00,WUHU216HW,2013-02-07 02:26:00,
2013-02-06 21:28:00,19.3,7.2,29.99,NNW,338,2.9,4.5,59,0.00,,,0.00,WUHU216HW,2013-02-07 02:28:00,
2013-02-06 21:29:00,19.3,7.2,29.99,NNW,338,2.9,4.5,59,0.00,,,0.00,WUHU216HW,2013-02-07 02:29:00,
2013-02-06 21:30:00,19.3,7.2,29.99,NNW,338,4.0,4.5,59,0.00,,,0.00,WUHU216HW,2013-02-07 02:30:00,
2013-02-06 21:31:00,19.3,7.2,29.99,North,0,2.7,4.5,59,0.00,,,0.00,WUHU216HW,2013-02-07 02:31:00,
2013-02-06 21:33:00,19.3,7.2,29.99,NW,315,4.0,4.0,59,0.00,,,0.00,WUHU216HW,2013-02-07 02:33:00,
2013-02-06 21:34:00,19.3,7.2,29.99,NW,315,3.4,4.0,59,0.00,,,0.00,WUHU216HW,2013-02-07 02:34:00,
2013-02-06 21:35:00,19.1,7.0,29.99,NW,315,3.4,4.0,59,0.00,,,0.00,WUHU216HW,2013-02-07 02:35:00,
2013-02-06 21:36:00,19.1,7.0,29.99,NW,315,4.7,4.7,59,0.00,,,0.00,WUHU216HW,2013-02-07 02:36:00,
2013-02-06 21:38:00,19.1,7.0,29.99,NNW,338,2.2,4.7,59,0.00,,,0.00,WUHU216HW,2013-02-07 02:38:00,
2013-02-06 21:39:00,19.1,7.0,29.99,NW,315,1.8,4.7,59,0.00,,,0.00,WUHU216HW,2013-02-07 02:39:00,
2013-02-06 21:40:00,19.1,7.0,29.99,NNW,338,3.4,4.7,59,0.00,,,0.00,WUHU216HW,2013-02-07 02:40:00,
2013-02-06 21:41:00,19.1,7.0,29.99,NW,315,2.2,4.7,59,0.00,,,0.00,WUHU216HW,2013-02-07 02:41:00,
2013-02-06 21:43:00,19.1,7.0,29.99,NNW,338,2.5,4.7,59,0.00,,,0.00,WUHU216HW,2013-02-07 02:43:00,
2013-02-06 21:44:00,19.1,7.0,29.99,West,270,4.9,4.9,59,0.00,,,0.00,WUHU216HW,2013-02-07 02:44:00,
2013-02-06 21:45:00,19.1,7.0,30.00,NNW,338,2.0,4.9,59,0.00,,,0.00,WUHU216HW,2013-02-07 02:45:00,
2013-02-06 21:47:00,19.1,7.0,30.00,NW,315,1.3,4.9,59,0.00,,,0.00,WUHU216HW,2013-02-07 02:47:00,
2013-02-06 21:48:00,19.1,7.0,29.99,NNW,338,3.4,4.9,59,0.00,,,0.00,WUHU216HW,2013-02-07 02:48:00,
2013-02-06 21:49:00,19.1,7.0,30.00,NNW,338,3.4,4.9,59,0.00,,,0.00,WUHU216HW,2013-02-07 02:49:00,
2013-02-06 21:50:00,19.1,7.0,29.99,NW,315,4.0,4.9,59,0.00,,,0.00,WUHU216HW,2013-02-07 02:50:00,
2013-02-06 21:52:00,19.1,7.0,29.99,NNW,338,2.0,4.9,59,0.00,,,0.00,WUHU216HW,2013-02-07 02:52:00,
2013-02-06 21:53:00,19.1,7.0,29.99,North,0,1.1,4.9,59,0.00,,,0.00,WUHU216HW,2013-02-07 02:53:00,
2013-02-06 21:54:00,19.1,7.0,29.99,WNW,293,3.1,4.0,59,0.00,,,0.00,WUHU216HW,2013-02-07 02:54:00,
2013-02-06 21:55:00,19.1,7.0,29.99,NW,315,2.2,4.0,59,0.00,,,0.00,WUHU216HW,2013-02-07 02:55:00,
2013-02-06 21:57:00,19.1,7.0,29.99,North,0,2.7,4.0,59,0.00,,,0.00,WUHU216HW,2013-02-07 02:57:00,
2013-02-06 21:58:00,19.1,7.0,29.99,WNW,293,4.7,4.7,59,0.00,,,0.00,WUHU216HW,2013-02-07 02:58:00,
2013-02-06 21:59:00,19.1,7.0,29.99,NW,315,4.9,4.9,59,0.00,,,0.00,WUHU216HW,2013-02-07 02:59:00,
2013-02-06 22:00:00,19.1,7.0,29.99,WNW,293,4.7,4.9,59,0.00,,,0.00,WUHU216HW,2013-02-07 03:00:00,
2013-02-06 22:02:00,19.1,7.0,29.99,NNW,338,2.0,4.9,59,0.00,,,0.00,WUHU216HW,2013-02-07 03:02:00,
2013-02-06 22:04:00,19.1,7.0,29.99,NNW,338,2.7,4.9,59,0.00,,,0.00,WUHU216HW,2013-02-07 03:04:00,
2013-02-06 22:05:00,18.9,6.8,29.99,West,270,4.0,4.9,59,0.00,,,0.00,WUHU216HW,2013-02-07 03:05:00,
2013-02-06 22:07:00,18.9,6.8,30.00,West,270,3.4,4.9,59,0.00,,,0.00,WUHU216HW,2013-02-07 03:07:00,
2013-02-06 22:09:00,18.9,6.8,30.00,West,270,4.0,4.7,59,0.00,,,0.00,WUHU216HW,2013-02-07 03:09:00,
2013-02-06 22:10:00,18.7,6.7,30.00,NW,315,2.9,4.0,59,0.00,,,0.00,WUHU216HW,2013-02-07 03:10:00,
2013-02-06 22:12:00,18.7,6.7,30.00,NW,315,1.8,4.0,59,0.00,,,0.00,WUHU216HW,2013-02-07 03:12:00,
2013-02-06 22:14:00,18.5,6.9,30.00,West,270,3.8,4.5,60,0.00,,,0.00,WUHU216HW,2013-02-07 03:14:00,
2013-02-06 22:15:00,18.5,6.9,30.00,NW,315,6.5,6.5,60,0.00,,,0.00,WUHU216HW,2013-02-07 03:15:00,
2013-02-06 22:17:00,18.7,7.1,30.00,West,270,4.0,6.5,60,0.00,,,0.00,WUHU216HW,2013-02-07 03:17:00,
2013-02-06 22:19:00,18.7,7.1,30.00,NNW,338,3.4,6.5,60,0.00,,,0.00,WUHU216HW,2013-02-07 03:19:00,
2013-02-06 22:21:00,18.7,7.1,30.00,NW,315,2.5,6.5,60,0.00,,,0.00,WUHU216HW,2013-02-07 03:21:00,
2013-02-06 22:22:00,18.7,7.1,30.00,WNW,293,3.4,6.5,60,0.00,,,0.00,WUHU216HW,2013-02-07 03:22:00,
2013-02-06 22:24:00,18.7,7.1,30.00,NNW,338,1.1,6.5,60,0.00,,,0.00,WUHU216HW,2013-02-07 03:24:00,
2013-02-06 22:25:00,18.7,7.1,30.00,NNW,338,1.1,6.5,60,0.00,,,0.00,WUHU216HW,2013-02-07 03:25:00,
2013-02-06 22:26:00,18.7,7.1,30.00,WNW,293,2.9,4.9,60,0.00,,,0.00,WUHU216HW,2013-02-07 03:26:00,
2013-02-06 22:27:00,18.7,7.1,30.00,NW,315,6.9,6.9,60,0.00,,,0.00,WUHU216HW,2013-02-07 03:27:00,
2013-02-06 22:30:00,18.7,7.1,30.00,NW,315,3.8,6.9,60,0.00,,,0.00,WUHU216HW,2013-02-07 03:30:00,
2013-02-06 22:31:00,18.7,7.1,30.00,NW,315,3.8,6.9,60,0.00,,,0.00,WUHU216HW,2013-02-07 03:31:00,
2013-02-06 22:32:00,18.7,7.1,30.00,WNW,293,4.5,6.9,60,0.00,,,0.00,WUHU216HW,2013-02-07 03:32:00,
2013-02-06 22:35:00,18.7,7.1,30.00,NW,315,2.7,6.9,60,0.00,,,0.00,WUHU216HW,2013-02-07 03:35:00,
2013-02-06 22:36:00,18.7,7.1,30.00,NW,315,6.9,6.9,60,0.00,,,0.00,WUHU216HW,2013-02-07 03:36:00,
2013-02-06 22:38:00,18.7,7.1,30.00,NW,315,4.5,6.9,60,0.00,,,0.00,WUHU216HW,2013-02-07 03:38:00,
2013-02-06 22:40:00,18.9,7.3,30.00,NW,315,3.4,6.9,60,0.00,,,0.00,WUHU216HW,2013-02-07 03:40:00,
2013-02-06 22:41:00,18.9,7.3,30.00,WNW,293,4.9,6.9,60,0.00,,,0.00,WUHU216HW,2013-02-07 03:41:00,
2013-02-06 22:43:00,18.9,7.3,30.00,WSW,248,2.5,6.9,60,0.00,,,0.00,WUHU216HW,2013-02-07 03:43:00,
2013-02-06 22:45:00,18.7,7.1,30.00,WNW,293,3.6,6.9,60,0.00,,,0.00,WUHU216HW,2013-02-07 03:45:00,
2013-02-06 22:46:00,18.7,7.1,30.00,West,270,3.4,4.9,60,0.00,,,0.00,WUHU216HW,2013-02-07 03:46:00,
2013-02-06 22:48:00,18.7,7.1,30.00,NW,315,2.9,5.4,60,0.00,,,0.00,WUHU216HW,2013-02-07 03:48:00,
2013-02-06 22:50:00,18.5,6.9,30.00,NNW,338,3.6,5.4,60,0.00,,,0.00,WUHU216HW,2013-02-07 03:50:00,
2013-02-06 22:51:00,18.7,7.1,30.00,NNW,338,2.0,5.4,60,0.00,,,0.00,WUHU216HW,2013-02-07 03:51:00,
2013-02-06 22:53:00,18.7,7.1,30.00,NW,315,4.5,5.4,60,0.00,,,0.00,WUHU216HW,2013-02-07 03:53:00,
2013-02-06 22:56:00,18.7,7.1,30.00,NNW,338,2.5,5.4,60,0.00,,,0.00,WUHU216HW,2013-02-07 03:56:00,
2013-02-06 22:59:00,18.7,7.1,29.99,NNW,338,3.6,6.5,60,0.00,,,0.00,WUHU216HW,2013-02-07 03:59:00,
2013-02-06 23:01:00,18.7,7.1,29.99,NNW,338,3.4,6.5,60,0.00,,,0.00,WUHU216HW,2013-02-07 04:01:00,
2013-02-06 23:02:00,18.7,7.1,29.99,NNW,338,4.0,6.5,60,0.00,,,0.00,WUHU216HW,2013-02-07 04:02:00,
2013-02-06 23:04:00,18.7,7.1,29.99,NW,315,3.4,6.5,60,0.00,,,0.00,WUHU216HW,2013-02-07 04:04:00,
2013-02-06 23:06:00,18.5,6.9,29.99,North,0,4.7,6.5,60,0.00,,,0.00,WUHU216HW,2013-02-07 04:06:00,
2013-02-06 23:07:00,18.5,6.9,29.99,North,0,4.7,6.5,60,0.00,,,0.00,WUHU216HW,2013-02-07 04:07:00,
2013-02-06 23:09:00,18.5,6.9,29.99,NW,315,2.7,4.7,60,0.00,,,0.00,WUHU216HW,2013-02-07 04:09:00,
2013-02-06 23:11:00,18.5,6.9,29.99,West,270,3.8,4.7,60,0.00,,,0.00,WUHU216HW,2013-02-07 04:11:00,
2013-02-06 23:12:00,18.4,6.8,29.99,NW,315,3.8,4.7,60,0.00,,,0.00,WUHU216HW,2013-02-07 04:12:00,
2013-02-06 23:14:00,18.4,6.8,29.99,NW,315,4.5,4.7,60,0.00,,,0.00,WUHU216HW,2013-02-07 04:14:00,
2013-02-06 23:16:00,18.4,6.8,30.00,NW,315,3.4,4.5,60,0.00,,,0.00,WUHU216HW,2013-02-07 04:16:00,
2013-02-06 23:17:00,18.4,6.8,29.99,NW,315,4.0,4.5,60,0.00,,,0.00,WUHU216HW,2013-02-07 04:17:00,
2013-02-06 23:20:00,18.4,6.8,29.99,NW,315,2.9,4.5,60,0.00,,,0.00,WUHU216HW,2013-02-07 04:20:00,
2013-02-06 23:21:00,18.4,6.8,30.00,NNW,338,2.2,4.5,60,0.00,,,0.00,WUHU216HW,2013-02-07 04:21:00,
2013-02-06 23:22:00,18.4,6.8,30.00,NNW,338,2.2,4.5,60,0.00,,,0.00,WUHU216HW,2013-02-07 04:22:00,
2013-02-06 23:25:00,18.4,6.8,30.00,NNE,23,2.9,4.0,60,0.00,,,0.00,WUHU216HW,2013-02-07 04:25:00,
2013-02-06 23:26:00,18.2,6.6,30.00,WNW,293,2.5,4.0,60,0.00,,,0.00,WUHU216HW,2013-02-07 04:26:00,
2013-02-06 23:27:00,18.2,6.6,30.00,WNW,293,2.5,4.0,60,0.00,,,0.00,WUHU216HW,2013-02-07 04:27:00,
2013-02-06 23:28:00,18.2,6.6,30.00,NW,315,2.7,2.9,60,0.00,,,0.00,WUHU216HW,2013-02-07 04:28:00,
2013-02-06 23:30:00,18.2,6.6,30.00,WNW,293,2.5,2.9,60,0.00,,,0.00,WUHU216HW,2013-02-07 04:30:00,
2013-02-06 23:31:00,18.2,6.6,30.00,North,0,5.8,5.8,60,0.00,,,0.00,WUHU216HW,2013-02-07 04:31:00,
2013-02-06 23:32:00,18.2,6.6,30.00,North,0,5.8,5.8,60,0.00,,,0.00,WUHU216HW,2013-02-07 04:32:00,
2013-02-06 23:33:00,18.2,6.6,30.00,North,0,4.5,5.8,60,0.00,,,0.00,WUHU216HW,2013-02-07 04:33:00,
2013-02-06 23:35:00,18.2,6.9,30.00,WNW,293,5.4,5.8,61,0.00,,,0.00,WUHU216HW,2013-02-07 04:35:00,
2013-02-06 23:36:00,18.2,6.9,30.00,NNW,338,4.7,5.8,61,0.00,,,0.00,WUHU216HW,2013-02-07 04:36:00,
2013-02-06 23:37:00,18.2,6.9,30.00,NNW,338,4.7,5.8,61,0.00,,,0.00,WUHU216HW,2013-02-07 04:37:00,
2013-02-06 23:38:00,18.2,6.9,30.00,NNW,338,2.5,5.8,61,0.00,,,0.00,WUHU216HW,2013-02-07 04:38:00,
2013-02-06 23:40:00,18.4,7.1,30.00,North,0,3.6,5.8,61,0.00,,,0.00,WUHU216HW,2013-02-07 04:40:00,
2013-02-06 23:41:00,18.2,6.9,30.00,NNW,338,3.4,5.4,61,0.00,,,0.00,WUHU216HW,2013-02-07 04:41:00,
2013-02-06 23:42:00,18.2,6.9,30.00,NNW,338,3.4,5.4,61,0.00,,,0.00,WUHU216HW,2013-02-07 04:42:00,
2013-02-06 23:43:00,18.2,6.9,29.99,NNW,338,3.4,5.4,61,0.00,,,0.00,WUHU216HW,2013-02-07 04:43:00,
2013-02-06 23:45:00,18.2,6.9,29.99,NNW,338,2.5,4.7,61,0.00,,,0.00,WUHU216HW,2013-02-07 04:45:00,
2013-02-06 23:47:00,18.2,6.9,29.99,NW,315,3.8,3.8,61,0.00,,,0.00,WUHU216HW,2013-02-07 04:47:00,
2013-02-06 23:49:00,18.0,6.8,29.99,North,0,1.8,3.8,61,0.00,,,0.00,WUHU216HW,2013-02-07 04:49:00,
2013-02-06 23:50:00,18.0,6.8,29.99,NNE,23,2.2,4.0,61,0.00,,,0.00,WUHU216HW,2013-02-07 04:50:00,
2013-02-06 23:52:00,18.0,6.8,30.00,NNW,338,2.2,4.0,61,0.00,,,0.00,WUHU216HW,2013-02-07 04:52:00,
2013-02-06 23:54:00,18.0,6.8,29.99,NNE,23,0.9,4.0,61,0.00,,,0.00,WUHU216HW,2013-02-07 04:54:00,
2013-02-06 23:56:00,17.8,6.7,30.00,North,0,0.7,4.0,61,0.00,,,0.00,WUHU216HW,2013-02-07 04:56:00,
2013-02-06 23:57:00,17.8,6.7,30.00,North,0,2.5,4.0,61,0.00,,,0.00,WUHU216HW,2013-02-07 04:57:00,
2013-02-06 23:58:00,17.8,6.7,30.00,NNW,338,0.4,4.0,61,0.00,,,0.00,WUHU216HW,2013-02-07 04:58:00,
2013-02-06 23:59:00,17.6,6.5,30.00,NNW,338,1.1,4.0,61,0.00,,,0.00,WUHU216HW,2013-02-07 04:59:00,